GEFSSE_con_prob3kmehi_000.txt.gz
EHI
0 0 0 1 0 0 1 11 35 60 72 76 74 69 73 74 58 31 11 3 1 0 2 5 7 10 13 12 7 2 0 0 0 0 0 0 0 0 0 0 0 1 1
0 0 1 2 2 1 0 9 37 69 84 86 84 80 78 68 45 21 6 1 0 0 1 2 4 7 11 10 5 1 0 0 0 0 0 0 0 0 0 0 0 0 1
0 0 1 6 8 5 2 7 32 67 88 93 92 87 77 55 27 8 2 0 0 0 0 1 2 6 9 9 5 2 0 0 0 0 0 0 1 2 1 0 0 0 0
0 1 4 11 14 9 3 4 18 44 66 77 78 71 57 35 13 2 0 1 2 3 4 5 5 7 9 10 6 2 0 0 0 0 0 1 7 12 8 2 1 0 0
0 2 6 12 12 6 2 2 7 18 31 40 42 37 27 15 5 0 1 2 5 9 10 10 9 7 8 7 4 1 0 0 0 0 1 4 14 22 15 7 6 3 1
0 1 3 6 6 3 1 1 1 4 7 9 11 9 6 3 1 0 1 4 9 12 13 13 11 7 4 3 1 0 0 0 0 0 1 9 22 25 15 8 8 6 3
0 0 0 1 3 6 6 3 2 3 3 1 2 2 1 0 0 2 3 6 8 11 11 10 8 4 1 0 0 0 0 0 0 0 0 16 36 30 11 4 4 5 4
0 0 0 1 9 20 20 8 4 7 7 3 2 2 1 0 1 3 5 6 7 8 7 5 3 1 0 0 0 0 0 0 0 0 0 16 35 29 8 1 0 1 2
0 0 0 3 18 37 32 14 9 16 15 7 3 2 1 0 1 3 4 6 9 10 6 2 0 0 0 0 0 0 0 0 0 0 0 7 14 12 4 1 0 0 0
0 0 0 3 19 35 30 15 15 26 24 9 2 2 1 0 1 2 5 8 12 12 8 2 0 0 0 0 0 0 0 0 0 0 0 0 0 0 0 0 0 0 0
3 2 1 2 9 18 16 8 12 23 20 7 1 1 1 0 0 2 5 9 11 11 7 2 0 0 0 0 0 0 0 0 0 0 0 1 1 1 0 0 0 0 0
7 4 2 2 3 5 5 2 4 7 7 2 0 0 0 0 0 1 3 4 6 7 4 1 0 0 0 0 0 0 0 0 0 0 0 1 2 1 0 0 0 1 1
5 3 3 4 2 0 0 0 0 0 0 0 0 0 0 0 0 0 0 0 1 2 1 0 0 0 0 0 0 0 0 0 0 0 0 1 1 1 0 0 1 3 4
1 1 2 4 3 1 0 0 0 0 0 0 0 0 0 0 0 0 0 0 0 0 0 0 0 0 0 0 0 0 0 0 0 0 0 0 0 0 0 0 1 3 6
0 0 1 3 5 2 0 0 0 0 0 0 0 0 0 0 0 0 0 0 0 0 0 0 0 0 0 0 0 0 0 0 0 0 0 0 0 0 0 0 0 2 3
0 0 0 2 3 2 0 0 0 0 0 0 0 1 1 1 3 3 1 0 0 0 0 0 0 0 0 0 0 0 0 0 0 0 0 0 0 0 0 0 0 1 2
0 0 0 0 1 1 1 3 6 6 4 1 1 3 4 5 9 8 4 1 0 0 0 0 0 0 0 0 0 0 0 0 0 0 0 0 0 0 0 0 0 0 1
0 0 0 0 1 8 18 27 29 23 10 4 3 4 5 8 10 8 4 2 1 0 0 0 0 0 0 0 0 0 0 0 0 0 0 0 0 0 0 0 0 0 0
0 1 2 5 14 33 54 65 57 33 13 5 3 2 2 4 4 3 2 1 0 0 0 0 0 0 0 0 0 0 0 0 0 0 0 0 0 0 0 0 0 0 0
4 9 15 19 32 52 67 70 54 26 7 2 1 0 0 0 0 0 0 0 0 0 0 0 0 0 0 0 0 0 0 0 0 0 0 0 0 0 0 0 0 0 0
16 28 41 43 41 47 52 45 27 10 2 0 0 0 0 0 0 0 0 0 0 0 0 0 0 0 0 0 0 0 0 0 0 0 0 0 0 0 0 0 0 0 0
39 54 70 68 55 46 39 25 9 1 0 0 0 0 0 0 0 0 0 0 0 0 0 0 0 0 0 0 0 0 0 0 0 0 0 0 0 0 0 0 0 0 0
56 69 79 74 60 44 26 11 3 0 0 0 0 0 0 0 0 0 0 0 0 0 0 0 0 0 0 0 0 0 0 0 0 0 0 0 0 0 0 0 0 0 0
48 59 64 55 39 24 10 2 0 0 0 0 0 0 0 0 0 0 0 0 0 0 0 0 0 0 0 0 0 0 0 0 0 0 0 0 0 0 0 0 0 0 0
32 40 42 30 16 6 2 0 0 0 0 0 0 0 0 0 0 0 0 0 0 0 0 0 0 0 0 0 0 0 0 0 0 0 0 0 0 0 0 0 0 0 0
28 31 29 18 7 2 0 0 0 0 0 0 0 0 0 0 0 0 0 0 0 0 0 0 0 0 0 0 0 0 0 0 0 0 0 0 0 0 0 0 0 0 0

GEFSSE_con_prob3kmehi_006.txt.gz
EHI
13 27 58 64 39 25 17 7 0 0 0 0 0 0 0 0 0 0 0 1 3 3 3 3 3 3 2 1 0 0 0 0 0 0 0 0 0 0 0 0 0 0 0
25 27 50 59 42 30 24 12 4 1 0 0 0 0 0 0 0 0 1 2 2 2 2 2 3 3 2 1 0 0 0 0 0 0 0 0 0 0 0 0 0 0 0
27 19 30 50 46 33 24 17 10 8 8 7 4 2 0 0 0 0 1 1 1 1 1 1 1 2 1 0 0 0 0 0 0 0 0 0 0 0 0 0 0 0 0
20 16 25 46 48 28 14 10 9 12 16 14 9 3 0 0 0 0 0 1 1 1 1 1 1 1 0 0 0 0 0 0 0 0 0 2 4 5 5 5 3 1 0
37 37 42 50 41 17 4 2 3 6 10 11 6 2 0 0 0 0 0 0 1 1 1 1 1 1 0 0 0 0 0 0 0 0 0 4 11 17 20 18 10 2 0
61 60 53 43 26 7 0 0 0 0 2 2 1 0 0 0 0 0 0 0 1 1 1 1 2 1 0 0 0 0 0 0 0 0 5 15 28 36 35 25 13 5 1
66 63 43 23 11 2 0 0 0 0 0 0 0 0 0 0 0 0 0 0 0 0 0 1 1 0 0 0 0 0 0 0 0 3 18 38 48 46 33 18 10 6 3
59 53 28 7 3 0 0 0 0 0 2 4 3 0 0 0 0 0 0 0 0 0 0 0 0 0 0 0 0 0 0 0 0 6 24 40 44 34 17 6 3 3 2
52 45 22 2 0 0 0 0 0 0 3 6 4 1 0 0 0 0 0 0 0 0 0 0 0 0 0 0 0 0 0 0 0 3 11 17 18 12 5 0 0 0 1
46 48 32 12 3 0 0 0 0 0 2 4 3 0 0 0 0 0 0 0 0 0 0 0 0 0 0 0 0 0 0 0 0 0 0 1 2 1 0 0 0 0 0
50 56 51 32 12 3 1 0 0 0 0 0 0 0 0 0 0 0 0 1 0 0 0 0 0 0 0 0 0 0 0 0 0 0 0 0 0 0 0 0 0 0 0
60 55 56 50 28 10 2 1 0 1 2 1 0 0 0 0 0 0 0 0 0 0 0 0 0 0 0 0 0 0 0 0 0 0 1 2 1 0 0 0 0 0 0
58 44 47 56 40 16 3 1 5 11 14 11 7 3 1 0 0 1 2 2 1 0 0 0 0 0 0 0 0 0 0 0 0 0 1 3 1 0 0 0 0 0 0
45 29 35 54 49 32 16 8 16 34 41 35 20 5 1 0 0 3 5 4 2 1 0 0 0 0 0 0 0 0 0 0 0 0 1 1 1 0 0 0 0 0 1
34 19 24 52 66 63 48 32 38 58 61 47 21 5 1 3 10 19 22 16 9 7 11 13 8 3 2 1 0 0 0 0 0 0 0 0 0 0 0 0 0 1 3
47 35 34 57 82 87 71 55 51 53 53 41 30 25 22 20 27 42 50 45 34 27 30 30 16 6 4 2 0 0 0 0 0 1 1 2 2 2 2 2 2 2 3
77 69 58 63 84 88 70 55 44 41 48 57 65 69 62 49 44 54 70 74 63 47 37 30 16 5 3 1 0 0 0 0 0 1 2 3 3 3 3 5 5 4 3
96 89 72 68 85 87 72 61 54 59 74 86 91 90 80 61 48 56 69 70 59 41 27 17 9 3 1 0 0 0 0 0 0 1 1 1 1 1 2 4 5 4 3
100 93 79 79 90 92 88 85 85 88 93 93 87 77 63 42 34 42 47 40 28 19 13 7 3 1 0 0 0 0 0 0 0 0 0 0 0 0 0 1 2 2 1
100 96 92 94 97 98 98 99 99 95 87 76 65 53 36 19 13 17 19 13 7 5 4 1 0 0 0 0 0 0 0 0 0 0 0 0 0 0 0 0 0 0 0
99 99 99 100 100 100 100 100 98 89 71 51 37 26 15 6 3 4 4 2 1 1 1 0 0 0 0 0 0 0 0 0 0 0 0 0 0 0 0 0 0 0 0
97 99 100 100 100 100 100 98 92 76 51 25 12 7 3 1 0 0 0 0 0 0 0 0 0 0 0 0 0 0 0 0 0 0 0 0 0 0 0 0 0 0 0
98 99 100 100 100 100 99 93 79 55 28 9 2 1 0 0 0 0 0 0 0 0 0 0 0 0 0 0 0 0 0 0 0 0 0 0 0 0 0 0 0 0 0
99 100 100 100 99 99 97 90 72 43 19 6 1 0 0 0 0 0 0 0 0 0 0 0 0 0 0 0 0 0 0 0 0 0 0 0 0 0 0 0 0 0 0
100 100 100 99 97 95 92 87 72 45 18 5 1 0 0 0 0 0 0 0 0 0 0 0 0 0 0 0 0 0 0 0 0 0 0 0 0 0 0 0 0 0 0
100 100 100 99 95 90 86 82 69 40 14 2 0 0 0 0 0 0 0 0 0 0 0 0 0 0 0 0 0 0 0 0 0 0 0 0 0 0 0 0 0 0 0

GEFSSE_con_prob3kmehi_012.txt.gz
EHI
3 16 48 75 80 73 63 46 25 11 10 16 24 27 30 42 55 57 52 44 31 14 4 1 0 0 0 0 0 0 0 0 0 0 0 0 0 0 0 0 0 0 0
5 19 53 81 87 82 74 57 34 17 12 17 21 20 19 23 28 29 25 20 13 6 2 0 0 0 0 0 0 0 0 0 0 0 0 0 0 0 0 0 0 0 0
7 21 57 87 93 90 81 66 45 25 15 15 15 12 8 6 5 5 3 1 1 0 0 0 0 0 0 0 0 0 0 0 0 0 0 0 0 0 0 0 0 0 0
5 20 57 89 96 91 79 64 47 28 15 11 8 6 3 1 1 0 0 0 0 0 0 0 0 0 0 0 0 0 0 0 0 0 0 0 0 0 0 0 0 0 0
1 16 54 87 95 85 65 45 31 19 9 5 3 1 0 0 0 0 0 0 0 0 0 0 0 0 0 0 0 0 0 0 0 0 0 0 0 0 0 0 0 0 0
0 10 42 74 79 62 37 18 10 6 2 1 0 0 0 0 0 0 0 0 0 0 0 0 0 0 0 0 0 0 0 0 0 0 0 0 1 1 2 1 1 0 0
0 5 25 46 47 30 13 3 2 1 0 0 0 0 0 0 0 0 0 0 0 0 0 0 0 0 0 0 0 0 0 0 0 0 0 0 2 3 4 5 4 2 1
1 2 11 18 17 9 4 3 4 3 1 0 0 0 0 0 0 0 0 0 0 0 0 0 0 0 0 0 0 0 0 0 0 0 0 0 1 2 4 6 6 4 3
1 1 3 4 3 3 3 4 5 4 1 0 0 0 0 0 0 0 0 0 0 0 0 0 0 0 0 0 0 0 0 0 0 0 0 0 0 0 1 3 3 2 1
2 1 0 0 1 2 3 3 3 2 0 0 0 0 0 0 0 0 0 0 0 0 0 0 0 0 0 0 0 0 0 0 0 0 0 0 0 0 0 0 0 0 0
11 5 0 0 2 2 1 1 1 0 0 0 0 0 0 0 0 0 0 0 0 0 0 0 0 0 0 0 0 0 0 0 0 0 0 0 0 0 0 0 0 0 0
29 17 6 2 2 1 0 0 0 0 0 0 0 0 0 0 0 0 0 0 0 0 0 0 0 0 0 0 0 0 0 0 0 0 0 0 0 0 0 0 0 0 0
50 42 27 13 5 1 0 0 0 0 0 0 0 0 0 0 0 0 0 0 0 0 0 0 0 0 0 0 0 0 0 0 0 0 0 1 2 2 1 0 0 0 1
72 71 58 35 14 3 0 0 0 0 0 0 0 0 0 0 0 0 0 0 0 0 0 0 0 0 0 0 0 0 0 0 0 0 0 2 4 8 8 4 1 0 1
84 86 82 58 26 7 2 1 0 0 0 0 0 0 0 0 0 0 0 0 0 0 0 0 0 0 0 0 0 0 0 0 0 0 0 1 5 15 20 13 4 1 1
81 86 89 73 40 14 8 7 4 2 0 0 0 0 0 0 0 0 0 0 0 0 0 0 0 0 0 0 0 0 0 0 0 0 0 0 4 14 25 24 15 7 2
75 80 88 81 50 20 13 16 15 10 5 2 0 0 0 0 0 0 0 0 0 0 0 0 0 0 0 0 0 0 0 0 0 0 0 0 1 7 17 22 21 15 9
73 78 88 86 60 27 17 26 33 30 19 8 1 0 0 0 0 0 0 0 0 0 0 0 0 0 0 0 0 0 0 0 0 0 0 0 0 1 5 9 13 13 11
75 81 89 92 75 49 38 44 50 44 28 11 2 0 0 0 0 0 0 0 0 0 0 0 0 0 0 0 0 0 0 0 0 0 0 0 0 0 0 1 2 4 5
77 83 91 96 91 80 72 67 54 36 17 5 1 0 0 0 0 0 0 0 0 0 0 0 0 0 0 0 0 0 0 0 0 0 0 0 0 0 0 0 0 0 0
83 87 92 97 99 97 90 74 46 18 4 0 0 0 0 0 0 0 0 0 0 0 0 0 0 0 0 0 0 0 0 0 0 0 0 0 0 0 0 0 0 0 0
92 91 93 98 100 97 86 62 30 8 1 0 0 0 0 0 0 0 0 0 0 0 0 0 0 0 0 0 0 0 0 0 0 0 0 0 0 0 0 0 0 0 0
96 95 96 98 99 91 70 40 14 3 0 0 0 0 0 0 0 0 0 0 0 0 0 0 0 0 0 0 0 0 0 0 0 0 0 0 0 0 0 0 0 0 0
98 98 99 99 94 74 42 16 4 0 0 0 0 0 0 0 0 0 0 0 0 0 0 0 0 0 0 0 0 0 0 0 0 0 0 0 0 0 0 0 0 0 0
99 98 96 89 73 44 16 3 0 0 0 0 0 0 0 0 0 0 0 0 0 0 0 0 0 0 0 0 0 0 0 0 0 0 0 0 0 0 0 0 0 0 0
98 96 89 74 49 22 5 0 0 0 0 0 0 0 0 0 0 0 0 0 0 0 0 0 0 0 0 0 0 0 0 0 0 0 0 0 0 0 0 0 0 0 0

GEFSSE_con_prob3kmehi_018.txt.gz
EHI
0 0 1 4 11 22 36 54 75 89 93 95 96 95 91 83 67 43 23 10 2 0 0 0 0 1 1 1 0 0 0 0 0 0 0 0 0 0 0 0 0 0 0
0 1 3 9 22 39 52 63 77 86 91 92 92 90 85 76 60 38 16 6 1 0 0 0 0 0 0 0 0 0 0 0 0 0 0 0 0 0 0 0 0 0 0
1 1 7 21 43 63 73 78 83 84 85 84 80 75 68 58 43 24 8 1 0 0 0 0 0 0 0 0 0 0 0 0 0 0 0 0 0 0 0 0 0 0 0
2 2 12 36 62 79 85 87 86 81 76 70 59 50 42 32 22 11 3 0 0 0 0 0 0 0 0 0 0 0 0 0 0 0 0 0 0 0 0 0 0 0 0
3 2 16 45 72 84 87 86 82 74 66 53 38 26 19 13 7 3 1 0 0 0 0 0 0 0 0 0 0 0 0 0 0 0 0 0 0 0 0 0 0 0 0
2 2 15 46 72 80 79 77 73 66 53 37 21 11 7 5 2 0 0 0 0 0 0 0 0 0 0 0 0 0 0 0 0 0 0 0 0 0 0 0 0 0 0
5 3 13 40 62 64 57 55 55 50 38 22 10 4 3 2 1 0 0 0 0 0 0 0 0 0 0 0 0 0 0 0 0 0 0 0 0 0 0 0 0 0 1
8 4 8 26 40 38 29 25 28 27 19 9 3 1 1 1 0 0 0 0 0 0 0 0 0 0 0 0 0 0 0 0 0 0 0 0 0 0 0 1 1 1 1
6 3 3 10 16 15 11 9 10 9 5 2 0 0 0 0 0 0 0 0 0 0 0 0 0 0 0 0 0 0 0 0 0 0 0 0 0 0 1 1 0 0 1
2 2 1 1 3 4 3 3 4 4 3 1 0 0 0 0 0 0 0 0 0 0 0 0 0 0 0 0 0 0 0 0 0 0 0 0 0 0 0 0 0 0 0
2 2 1 0 1 1 0 1 2 4 3 1 0 0 0 0 0 0 0 0 0 0 0 0 0 0 0 0 0 0 0 0 0 0 0 0 0 0 0 0 0 0 0
3 3 2 1 1 1 0 0 1 1 1 0 0 0 0 0 0 0 0 0 0 0 0 0 0 0 0 0 0 0 0 0 0 0 0 0 0 0 0 0 0 0 0
2 2 2 3 4 3 2 0 0 0 0 0 0 0 0 0 0 0 0 0 0 0 0 0 0 0 0 0 0 0 0 0 0 0 0 0 0 0 0 0 0 0 0
1 1 2 3 5 5 3 1 1 0 0 0 0 0 0 0 0 0 0 0 0 0 0 0 0 0 0 0 0 0 0 0 0 0 0 1 2 2 1 0 1 1 1
3 2 1 2 4 5 4 3 1 0 0 0 0 0 0 0 0 0 0 0 0 0 0 0 0 0 0 0 0 0 0 0 0 0 0 2 4 5 3 1 0 1 1
6 4 2 3 5 6 6 5 2 0 0 0 0 0 0 0 0 0 0 0 0 0 0 0 0 0 0 0 0 0 0 0 0 0 0 1 2 4 4 1 0 0 1
14 11 8 8 11 13 10 6 2 0 0 0 0 0 0 0 0 0 0 0 0 0 0 0 0 0 0 0 0 0 0 0 0 0 0 0 0 1 2 1 0 0 0
34 28 23 24 26 25 17 8 2 0 0 0 0 0 0 0 0 0 0 0 0 0 0 0 0 0 0 0 0 0 0 0 0 0 0 0 0 0 0 0 0 0 0
59 53 49 50 50 41 24 10 2 0 0 0 0 0 0 0 0 0 0 0 0 0 0 0 0 0 0 0 0 0 0 0 0 0 0 0 0 0 0 0 0 0 0
75 75 75 76 73 58 36 19 10 4 1 0 0 0 0 0 0 0 0 0 0 0 0 0 0 0 0 0 0 0 0 0 0 0 0 0 0 0 0 0 0 0 0
80 82 86 89 84 70 51 33 18 7 1 0 0 0 0 0 0 0 0 0 0 0 0 0 0 0 0 0 0 0 0 0 0 0 0 0 0 0 0 0 0 0 0
75 80 87 90 84 71 54 33 15 5 1 0 0 0 0 0 0 0 0 0 0 0 0 0 0 0 0 0 0 0 0 0 0 0 0 0 0 0 0 0 0 0 0
66 76 86 85 76 59 38 19 6 1 0 0 0 0 0 0 0 0 0 0 0 0 0 0 0 0 0 0 0 0 0 0 0 0 0 0 0 0 0 0 0 0 0
63 74 80 75 60 39 18 7 2 0 0 0 0 0 0 0 0 0 0 0 0 0 0 0 0 0 0 0 0 0 0 0 0 0 0 0 0 0 0 0 0 0 0
66 72 70 57 38 18 6 2 1 0 0 0 0 0 0 0 0 0 0 0 0 0 0 0 0 0 0 0 0 0 0 0 0 0 0 0 0 0 0 0 0 0 0
70 69 61 42 21 7 1 0 0 0 0 0 0 0 0 0 0 0 0 0 0 0 0 0 0 0 0 0 0 0 0 0 0 0 0 0 0 0 0 0 0 0 0

GEFSSE_con_prob3kmehi_024.txt.gz
EHI
3 6 6 2 0 0 2 9 22 35 42 41 36 30 25 20 17 16 19 22 24 21 17 11 5 1 0 0 0 0 0 0 0 0 0 0 0 0 0 0 0 0 0
6 11 10 3 0 0 3 13 35 55 63 61 56 47 39 33 29 27 26 25 22 17 11 7 2 0 0 0 0 0 0 0 0 0 0 0 0 0 0 0 0 0 0
8 12 10 4 0 1 3 18 49 76 86 84 80 71 61 54 47 37 29 23 16 10 4 2 0 0 0 0 0 0 0 0 0 0 0 0 0 0 0 0 0 0 0
4 6 8 5 3 2 3 16 46 74 87 89 87 81 72 64 52 35 22 13 8 3 1 0 0 0 0 0 0 0 0 0 0 0 0 0 0 0 0 0 0 0 0
1 3 8 9 7 5 5 11 31 56 73 81 82 76 65 53 39 24 12 5 1 0 0 0 0 0 0 0 0 0 0 0 0 0 0 0 0 0 0 0 0 0 0
0 3 9 13 11 8 6 8 18 37 56 66 68 61 49 35 23 13 5 1 0 0 0 0 0 0 0 0 0 0 0 0 0 0 0 0 0 0 0 0 0 0 0
0 3 9 15 13 9 6 4 9 22 39 50 51 44 32 21 12 6 2 0 0 0 0 0 0 0 0 0 0 0 0 0 0 0 0 0 0 0 0 0 0 0 0
0 3 9 13 12 7 3 2 5 14 27 37 39 31 20 11 5 2 0 0 0 0 0 0 0 0 0 0 0 0 0 0 0 0 0 0 0 0 0 0 0 0 0
0 2 5 8 7 3 1 1 3 10 18 24 25 18 9 4 1 0 0 0 0 0 0 0 0 0 0 0 0 0 0 0 0 0 0 0 0 0 0 0 0 0 0
0 0 1 3 4 2 0 0 2 4 8 11 10 6 2 1 0 0 0 0 0 0 0 0 0 0 0 0 0 0 0 0 0 0 0 0 0 0 0 0 0 0 0
4 2 0 2 3 1 0 0 0 1 2 2 2 1 0 0 0 0 0 0 0 0 0 0 0 0 0 0 0 0 0 0 0 0 0 1 0 0 0 0 0 0 0
10 4 0 0 1 0 0 0 0 0 0 0 0 0 0 0 0 0 1 0 0 0 0 0 0 0 0 0 0 0 0 0 0 0 0 1 1 1 1 1 0 0 0
11 6 1 0 0 0 0 0 0 0 0 0 1 2 1 1 0 0 0 0 0 0 0 0 0 0 0 0 0 0 0 0 0 0 1 1 2 2 2 2 1 0 0
8 6 2 1 2 2 1 0 0 0 0 1 4 5 4 2 0 0 0 0 0 0 0 0 0 0 0 0 0 0 0 0 0 0 1 2 2 2 2 2 1 0 0
10 8 6 6 8 8 5 2 0 0 0 2 5 6 4 2 1 1 2 3 2 2 1 0 0 0 0 0 0 0 0 0 0 0 1 1 1 1 1 1 0 0 0
23 19 16 18 20 17 11 4 1 0 0 1 3 3 3 2 4 6 9 10 10 8 5 2 0 0 0 0 0 0 0 0 0 0 0 0 0 0 0 0 0 0 0
45 40 34 32 34 32 22 12 6 4 4 4 4 4 4 6 12 20 26 28 23 15 7 3 1 0 0 0 0 0 0 0 0 0 0 0 0 0 0 0 0 0 0
66 64 56 49 51 52 43 31 23 16 12 12 13 12 12 16 25 38 46 43 29 14 6 2 1 0 1 0 0 0 0 0 0 0 0 0 0 0 0 0 0 0 0
80 78 74 71 71 73 68 59 47 36 30 29 32 34 31 31 36 45 48 38 21 10 4 2 0 0 0 0 0 0 0 0 0 0 0 0 0 0 0 0 0 0 0
85 85 87 88 89 90 88 79 67 57 49 45 45 46 42 36 33 34 31 21 11 6 3 1 0 0 0 0 0 0 0 0 0 0 0 0 0 0 0 0 0 0 0
85 89 93 95 97 97 94 87 76 64 49 37 32 31 28 23 19 17 13 8 5 3 1 1 0 0 0 0 0 0 0 0 0 0 0 0 0 0 0 0 0 0 0
78 84 93 96 98 97 91 82 68 49 29 16 11 9 8 7 7 5 3 1 1 1 0 0 0 0 0 0 0 0 0 0 0 0 0 0 0 0 0 0 0 0 0
63 74 86 93 95 91 83 70 53 32 15 5 2 2 1 1 1 0 0 0 0 0 0 0 0 0 0 0 0 0 0 0 0 0 0 0 0 0 0 0 0 0 0
59 69 82 89 89 83 74 61 44 26 12 4 1 0 0 0 0 0 0 0 0 0 0 0 0 0 0 0 0 0 0 0 0 0 0 0 0 0 0 0 0 0 0
70 77 84 84 78 69 59 48 35 21 10 3 0 0 0 0 0 0 0 0 0 0 0 0 0 0 0 0 0 0 0 0 0 0 0 0 0 0 0 0 0 0 0
81 85 87 81 69 57 46 34 23 14 7 1 0 0 0 0 0 0 0 0 0 0 0 0 0 0 0 0 0 0 0 0 0 0 0 0 0 0 0 0 0 0 0

GEFSSE_con_prob3kmehi_030.txt.gz
EHI
48 44 53 55 34 11 1 0 0 0 0 0 1 3 10 22 38 50 50 36 18 4 0 0 0 0 0 0 0 0 0 0 1 2 3 5 9 14 20 20 11 3 1
62 54 55 54 34 13 1 0 0 0 0 0 0 1 5 13 25 36 35 24 10 2 0 0 0 0 0 0 0 0 0 0 0 1 1 2 4 6 11 15 12 4 1
67 51 45 46 33 15 4 0 0 0 0 0 0 0 3 9 17 24 22 13 4 1 0 0 0 0 0 0 0 0 0 0 0 0 0 0 0 0 2 6 6 2 0
51 34 27 36 32 17 6 1 0 0 0 1 1 3 10 18 24 23 17 8 2 0 0 0 0 0 0 0 0 0 0 0 0 0 0 0 0 0 0 0 0 0 0
35 24 22 30 29 17 7 2 0 0 0 2 6 12 23 31 31 22 12 5 1 0 0 0 0 0 0 0 0 0 0 0 0 0 0 0 0 0 0 0 0 0 0
33 27 24 28 25 15 7 2 0 0 2 9 21 33 41 43 36 21 8 2 1 0 0 0 0 0 0 0 0 0 0 0 0 2 3 2 2 4 3 1 0 0 0
44 35 25 24 22 13 7 2 0 0 5 19 38 52 54 48 38 20 5 0 0 0 0 0 0 0 0 0 0 0 0 0 0 3 7 7 10 16 13 5 1 0 0
59 43 25 19 17 9 5 1 0 0 5 22 42 52 48 39 27 14 3 0 0 0 0 0 0 0 0 0 0 0 0 0 0 2 5 10 20 29 22 9 3 1 0
65 47 22 11 10 6 2 0 0 0 4 16 30 34 28 20 12 6 2 0 0 0 0 0 0 0 0 0 0 0 0 0 0 1 3 12 26 30 19 8 4 2 1
65 49 22 7 6 3 1 0 0 1 4 9 14 15 11 6 3 1 4 6 3 0 0 0 0 0 0 0 0 0 0 0 0 2 5 13 24 22 10 4 3 2 2
68 55 29 12 7 3 1 2 1 2 3 4 4 5 3 1 0 5 20 27 13 1 0 0 0 0 0 0 0 0 0 0 1 3 7 13 17 12 4 1 1 1 1
68 60 43 28 16 8 10 11 5 2 3 2 4 5 3 1 6 21 45 47 22 4 1 0 0 0 0 0 0 0 0 0 2 5 8 12 12 8 2 0 0 0 0
58 55 55 49 31 22 29 28 11 6 9 7 10 14 8 5 18 40 53 42 20 5 1 0 0 0 0 0 0 0 0 0 2 5 7 11 12 7 2 0 0 0 0
48 47 59 66 51 41 48 44 21 17 25 23 27 31 20 15 28 44 46 30 14 5 3 2 1 0 0 0 0 0 0 0 2 3 5 8 11 8 2 0 0 0 0
56 51 62 78 73 63 65 60 37 33 43 48 52 52 40 32 39 49 49 36 23 19 18 13 9 6 4 2 2 1 1 0 0 1 2 5 7 6 2 0 0 0 0
77 71 75 89 90 84 83 76 58 50 58 68 73 72 62 58 63 67 63 50 42 46 46 37 28 21 13 8 6 4 2 1 0 0 1 2 3 2 1 0 0 0 0
94 91 92 96 98 97 94 87 71 62 69 79 84 84 82 83 85 83 75 64 59 64 66 61 50 37 26 19 13 7 3 1 0 1 0 0 0 0 0 0 0 0 0
100 99 99 98 99 100 98 92 79 73 80 86 86 88 92 94 93 89 82 73 67 66 64 61 52 40 32 26 16 7 3 1 0 0 0 0 0 0 0 0 0 0 0
99 100 100 99 100 100 100 96 90 87 87 83 80 81 85 87 87 86 80 70 60 53 45 38 33 27 23 19 10 3 1 0 0 0 0 0 0 0 0 0 0 0 0
99 100 100 100 100 100 100 98 97 92 82 72 68 67 67 68 73 73 66 55 43 33 25 18 14 11 9 6 2 0 0 0 0 0 0 0 0 0 0 0 0 0 0
99 100 100 100 100 100 100 99 96 86 73 63 56 51 45 45 50 50 42 35 27 19 12 8 5 3 1 1 0 0 0 0 0 0 0 0 0 0 0 0 0 0 0
98 99 100 100 100 100 100 97 90 78 64 53 43 33 26 23 25 23 19 16 13 9 5 2 1 0 0 0 0 0 0 0 0 0 0 0 0 0 0 0 0 0 0
93 97 100 100 100 100 98 92 81 69 55 39 26 16 11 8 7 6 6 6 5 3 1 0 0 0 0 0 0 0 0 0 0 0 0 0 0 0 0 0 0 0 0
91 96 100 100 99 98 94 85 75 64 48 29 14 6 3 1 1 1 2 2 2 1 0 0 0 0 0 0 0 0 0 0 0 0 0 0 0 0 0 0 0 0 0
93 96 99 98 96 92 85 78 71 60 41 19 7 2 1 0 0 0 1 1 1 0 0 0 0 0 0 0 0 0 0 0 0 0 0 0 0 0 0 0 0 0 0
97 97 98 96 92 86 78 71 65 53 31 11 2 1 0 0 0 0 0 0 0 0 0 0 0 0 0 0 0 0 0 0 0 0 0 0 0 0 0 0 0 0 0

GEFSSE_con_prob3kmehi_036.txt.gz
EHI
4 23 58 84 92 94 92 87 82 83 87 89 89 88 86 86 89 86 79 69 52 30 10 2 0 0 0 1 2 2 1 2 2 1 1 1 1 3 9 14 10 6 7
12 26 59 85 92 90 82 72 64 63 66 71 76 78 77 78 80 75 64 52 37 18 5 1 0 0 0 0 1 1 1 3 3 2 1 1 1 2 6 11 10 8 9
27 29 51 79 88 81 65 46 34 31 33 38 47 54 55 57 57 49 37 26 16 6 1 0 0 0 0 0 0 0 1 2 2 1 0 0 0 0 3 6 7 8 9
32 26 38 67 78 68 47 24 11 9 9 11 17 23 27 28 27 20 13 8 4 1 0 0 0 0 0 0 0 0 0 0 0 0 0 0 0 0 0 1 2 4 5
24 21 35 57 64 53 33 12 3 1 1 1 2 5 7 7 6 3 1 1 1 0 0 0 0 0 0 0 0 0 0 0 0 0 0 0 0 0 0 0 0 1 1
15 18 33 49 49 38 23 9 3 1 0 0 0 0 0 0 0 0 0 0 0 0 0 0 0 0 0 0 0 0 0 0 0 0 0 0 0 0 1 1 1 0 0
16 16 25 36 36 28 19 10 5 3 1 1 1 1 0 0 0 0 0 0 0 0 0 0 0 0 0 0 0 0 1 1 0 0 0 0 0 1 2 2 2 1 0
18 13 14 21 24 22 18 11 7 4 3 4 5 4 4 4 4 3 1 0 0 0 0 0 0 0 0 0 0 0 1 1 0 0 0 0 1 2 2 3 2 1 0
14 11 7 8 11 14 13 9 6 5 5 6 7 8 10 11 9 5 2 1 0 0 0 0 0 0 0 0 0 0 0 0 0 0 0 0 1 2 2 2 2 1 0
6 7 5 3 3 6 6 5 4 5 6 7 8 10 13 11 7 4 2 1 0 0 0 0 0 0 0 0 0 0 0 0 0 0 0 0 1 2 2 1 1 0 0
2 3 5 4 3 4 4 3 3 3 4 4 5 8 9 5 2 1 1 0 0 0 0 0 0 0 0 1 0 0 0 0 0 0 0 1 2 2 1 0 0 0 0
4 3 4 5 6 7 5 3 1 1 1 1 2 3 3 1 0 0 0 0 0 0 0 0 0 0 0 0 0 0 0 0 0 0 1 2 2 1 0 0 0 0 0
12 7 4 7 9 8 5 3 1 0 0 0 0 0 0 0 0 0 0 0 0 0 0 0 0 0 0 0 0 0 0 0 0 0 1 2 2 1 1 1 1 0 0
25 15 9 10 11 9 6 3 1 0 0 0 0 0 0 0 0 0 1 1 1 0 0 0 0 0 0 0 0 0 0 0 0 0 1 2 4 4 3 2 1 0 0
42 28 17 16 14 11 7 4 1 0 0 0 0 0 0 0 0 0 1 1 1 0 0 0 0 0 0 0 0 0 0 0 0 0 1 4 7 7 7 5 3 2 1
58 45 32 26 21 16 12 7 3 2 1 0 0 0 0 0 1 1 0 0 0 0 0 0 0 0 0 0 0 0 0 0 0 0 1 3 6 8 10 9 6 4 2
67 61 53 45 40 34 26 17 12 10 8 5 4 4 3 3 4 3 1 1 0 0 0 0 0 0 0 0 0 0 0 0 0 0 0 1 2 5 7 8 6 3 2
65 69 70 67 64 62 53 41 31 26 23 21 18 15 12 10 9 7 4 2 1 0 0 0 0 0 0 0 0 0 0 0 0 0 0 0 0 1 2 3 3 1 0
61 70 78 80 82 83 79 70 58 49 44 41 38 33 27 22 16 10 6 3 1 1 0 0 0 0 0 0 0 0 0 0 0 0 0 0 0 0 0 1 1 0 0
58 67 78 85 89 92 93 88 78 68 58 53 50 45 37 29 21 13 7 4 2 1 0 0 0 0 0 0 0 0 0 0 0 0 0 0 0 0 0 0 0 0 0
51 59 73 85 92 96 96 92 82 70 58 48 43 37 30 24 18 12 8 4 2 1 0 0 0 0 0 0 0 0 0 0 0 0 0 0 0 0 0 0 0 0 0
45 53 67 81 91 94 92 84 73 60 46 34 26 18 14 13 11 9 5 2 0 0 0 0 0 0 0 0 0 0 0 0 0 0 0 0 0 0 0 0 0 0 0
45 52 63 76 86 89 84 75 63 51 39 26 14 7 5 6 5 4 2 0 0 0 0 0 0 0 0 0 0 0 0 0 0 0 0 0 0 0 0 0 0 0 0
47 53 63 73 81 82 76 68 59 49 36 21 9 3 3 3 2 1 0 0 0 0 0 0 0 0 0 0 0 0 0 0 0 0 0 0 0 0 0 0 0 0 0
51 55 64 73 75 72 67 61 52 41 27 13 4 1 1 1 0 0 0 0 0 0 0 0 0 0 0 0 0 0 0 0 0 0 0 0 0 0 0 0 0 0 0
56 59 65 71 70 64 59 53 44 31 19 8 2 0 0 0 0 0 0 0 0 0 0 0 0 0 0 0 0 0 0 0 0 0 0 0 0 0 0 0 0 0 0

GEFSSE_con_prob3kmehi_042.txt.gz
EHI
5 7 9 18 43 75 94 99 100 100 99 98 96 93 91 88 83 75 65 58 53 46 39 33 25 16 10 6 2 0 0 0 0 0 0 0 0 0 1 1 1 2 5
20 17 18 29 52 79 94 99 100 100 100 99 97 95 94 93 90 84 74 65 57 47 37 28 18 10 7 4 1 0 0 0 0 0 0 0 0 0 1 2 1 2 5
45 30 26 41 63 83 94 98 99 100 100 99 97 97 97 98 97 90 79 68 58 47 32 18 8 3 2 1 0 0 0 0 0 0 0 0 0 0 1 1 1 1 3
58 39 29 45 70 86 94 96 98 98 98 96 95 95 95 96 93 84 70 58 50 39 23 8 2 0 0 0 0 0 0 0 0 0 0 0 0 0 0 0 0 0 1
52 38 32 47 67 83 90 91 93 93 91 90 89 89 88 85 77 64 49 36 30 23 12 3 0 0 0 0 0 0 0 0 0 0 0 0 0 0 0 0 0 0 0
34 28 30 43 57 70 78 81 81 80 80 79 77 74 69 62 50 36 24 15 10 7 4 1 0 0 0 0 0 0 0 0 0 0 0 0 0 0 0 0 0 0 0
26 23 26 34 42 52 61 64 63 62 63 62 58 51 42 33 24 15 9 4 2 1 0 0 0 0 0 0 0 0 0 0 0 0 0 0 0 0 0 0 0 0 0
33 27 22 24 27 33 40 43 42 41 41 40 35 26 18 12 8 5 3 2 1 0 0 0 0 0 0 0 0 0 0 0 0 0 0 0 0 0 0 0 0 0 0
35 26 17 14 15 17 22 24 23 23 23 21 16 10 5 3 2 1 1 1 0 0 0 0 0 0 0 0 0 0 0 0 0 0 0 0 0 0 0 0 0 0 0
22 17 10 8 8 10 12 14 14 14 13 9 6 3 1 0 0 0 1 1 0 0 0 0 0 0 0 0 0 1 1 1 0 0 0 0 0 0 0 0 0 0 0
10 8 6 6 7 9 11 12 11 9 7 4 2 1 0 0 0 1 2 2 1 0 0 0 0 0 0 0 1 2 2 1 0 0 0 0 0 0 0 0 0 0 0
6 4 4 5 9 11 12 11 9 5 3 2 1 0 0 0 0 1 2 2 1 0 0 0 0 0 0 0 1 1 1 0 0 0 1 1 0 0 0 0 0 0 0
4 3 2 4 9 13 13 11 8 4 2 1 0 0 0 0 0 0 1 1 0 0 0 0 0 0 0 0 0 0 0 0 0 1 2 2 1 1 0 0 0 0 0
3 2 1 2 7 12 12 11 8 4 4 3 1 0 0 0 0 0 0 0 0 0 0 0 0 0 0 0 0 0 0 0 0 1 4 5 3 1 0 0 0 0 0
2 1 1 1 4 8 11 11 7 4 4 3 1 1 1 0 0 0 0 0 0 0 0 0 0 0 0 0 0 0 0 0 0 1 5 8 8 4 2 1 1 1 0
0 1 2 2 3 5 9 10 7 3 1 1 1 1 2 1 0 0 0 0 0 0 0 0 0 0 0 0 0 0 0 0 0 1 4 8 9 7 4 3 2 1 1
1 2 3 4 3 4 6 7 4 1 0 0 0 1 1 1 0 0 0 0 0 0 0 0 0 0 0 0 0 0 0 0 0 0 1 3 4 6 5 2 2 1 0
9 7 8 9 7 6 4 2 1 0 0 0 0 0 0 0 0 0 0 0 0 0 0 0 0 0 0 0 0 0 0 0 0 0 0 0 1 2 2 1 0 0 0
22 18 18 18 15 11 7 4 2 1 0 0 0 0 0 0 0 0 0 0 0 0 0 0 0 0 0 0 0 0 0 0 0 0 0 0 0 0 0 0 0 0 0
32 31 31 31 27 21 16 13 10 7 4 2 1 0 0 1 1 1 0 0 0 0 0 0 0 0 0 0 0 0 0 0 0 0 0 0 0 0 0 0 0 0 0
37 37 39 41 40 37 33 29 22 16 10 5 3 1 0 2 3 2 1 1 1 1 0 0 0 0 0 0 0 0 0 0 0 0 0 0 0 0 0 0 0 0 0
39 37 38 44 50 51 51 44 32 22 14 8 4 1 0 1 3 3 2 2 1 1 0 0 0 0 0 0 0 0 0 0 0 0 0 0 0 0 0 0 0 0 0
38 36 36 43 53 58 59 54 43 31 22 15 8 3 0 0 1 1 1 1 1 0 0 0 0 0 0 0 0 0 0 0 0 0 0 0 0 0 0 0 0 0 0
33 31 33 41 50 56 60 59 52 42 32 22 13 5 1 0 0 0 0 0 0 0 0 0 0 0 0 0 0 0 0 0 0 0 0 0 0 0 0 0 0 0 0
23 24 28 34 41 49 56 56 51 42 32 21 12 4 1 0 0 0 0 0 0 0 0 0 0 0 0 0 0 0 0 0 0 0 0 0 0 0 0 0 0 0 0
16 19 25 29 34 43 50 50 44 35 26 17 9 3 1 0 0 0 0 0 0 0 0 0 0 0 0 0 0 0 0 0 0 0 0 0 0 0 0 0 0 0 0

GEFSSE_con_prob3kmehi_048.txt.gz
EHI
15 16 13 6 4 16 38 53 58 56 48 44 43 41 36 31 27 18 9 6 7 9 8 6 5 5 6 7 5 2 2 3 4 5 2 0 0 0 0 0 0 0 0
31 25 17 10 8 23 48 65 70 69 66 63 61 60 54 46 38 27 15 8 7 8 7 4 3 3 3 4 3 1 1 1 2 2 1 0 0 0 0 1 1 1 0
49 34 17 12 17 36 64 81 82 82 83 83 81 80 76 67 54 40 23 11 6 6 6 4 2 1 1 1 1 0 0 0 0 0 0 0 0 0 0 1 2 1 0
48 31 14 13 25 51 78 89 89 88 90 91 91 90 86 77 65 49 28 12 6 5 6 5 2 1 0 0 0 0 0 0 0 0 0 0 0 0 0 1 1 1 0
33 21 14 16 30 59 83 91 92 93 94 95 96 95 90 79 66 50 29 13 6 5 5 3 1 0 0 0 0 0 0 0 0 0 0 0 0 0 0 0 0 0 0
16 11 11 16 30 58 82 90 93 95 96 97 97 96 90 76 61 45 27 13 6 5 4 2 0 0 0 0 0 0 0 0 0 0 0 0 0 0 0 0 0 0 0
7 5 7 12 24 50 75 86 91 94 94 94 94 92 84 71 54 39 24 13 7 4 3 1 0 0 0 0 0 0 0 0 0 0 0 1 2 1 0 0 0 0 0
4 3 4 6 14 33 56 75 85 88 88 88 87 84 76 62 46 31 19 13 8 4 2 1 0 0 0 0 0 0 0 0 0 0 0 1 2 1 0 0 0 0 0
2 1 1 2 4 14 31 50 67 74 75 75 72 67 59 45 30 19 12 9 6 4 2 1 0 0 0 0 0 0 0 0 0 0 0 1 2 1 0 0 0 0 0
2 1 0 0 0 3 10 22 37 48 51 50 45 41 34 23 12 7 5 4 3 2 1 0 0 0 0 0 0 0 0 0 0 0 1 3 4 1 0 0 0 0 0
6 2 0 0 0 0 1 5 11 17 21 20 18 16 11 5 2 1 2 2 1 1 0 0 0 0 0 0 0 0 0 0 0 1 3 7 6 2 0 0 0 0 0
12 5 0 0 0 0 0 0 1 2 3 4 3 3 1 0 0 1 2 1 0 0 0 0 0 0 0 0 0 0 0 0 0 1 4 7 5 1 0 0 0 0 0
12 5 0 0 0 0 0 0 0 0 0 1 1 1 1 0 0 0 1 0 0 0 0 1 0 0 0 0 0 0 0 0 0 1 3 4 3 1 0 0 0 0 0
6 3 0 0 0 0 0 1 0 0 0 1 2 2 1 0 0 0 0 0 0 0 0 0 0 0 0 0 0 0 0 0 0 1 2 2 2 1 0 1 1 0 0
4 2 0 0 0 0 0 0 0 0 0 1 2 1 1 0 1 1 0 0 0 0 0 0 0 0 0 0 0 0 0 0 0 2 3 3 3 3 2 1 1 0 0
8 4 1 1 1 1 0 0 0 1 1 0 1 1 1 1 2 2 2 3 2 1 0 1 1 2 1 0 0 0 0 0 1 3 4 4 5 6 5 2 1 0 0
9 6 3 2 2 1 1 2 2 2 2 1 2 4 6 6 7 7 6 7 7 6 6 7 6 5 4 3 2 1 1 0 1 3 5 6 6 7 6 4 2 1 0
8 8 6 5 5 5 5 5 4 4 4 5 7 10 13 15 18 18 16 18 20 20 18 17 13 9 8 8 6 4 3 2 3 3 5 7 6 6 6 5 3 1 0
9 9 9 8 9 9 9 9 8 8 9 10 13 16 20 24 26 27 31 36 38 39 38 32 25 17 13 10 8 6 3 3 4 3 3 4 4 4 5 5 3 2 1
10 11 12 12 14 16 16 17 17 17 19 19 21 25 28 30 31 33 41 50 54 55 55 48 37 26 17 11 6 3 2 1 2 1 1 1 1 2 3 3 2 1 0
14 17 19 21 23 26 30 32 32 32 31 30 32 36 38 37 35 38 47 56 60 60 57 50 41 28 17 10 5 2 1 0 0 0 0 0 0 0 1 1 1 0 0
31 32 35 37 39 43 48 50 50 49 46 43 46 49 48 44 41 41 49 54 55 54 48 41 34 24 13 6 4 4 2 1 0 0 0 0 0 0 0 0 0 0 0
47 48 50 52 53 58 64 65 65 65 62 59 60 58 52 45 40 39 40 42 44 44 38 30 24 18 10 3 2 4 3 1 0 0 0 0 0 0 0 0 0 0 0
52 53 55 55 56 60 65 68 68 69 70 69 65 57 44 35 30 26 24 26 29 28 23 17 12 9 6 2 1 1 1 1 0 0 0 0 0 0 0 0 0 0 0
49 50 50 51 53 54 57 61 64 67 71 69 60 45 31 22 17 13 12 14 14 11 8 5 3 2 2 1 0 0 0 0 0 0 0 0 0 0 0 0 0 0 0
46 46 47 50 53 52 52 55 61 67 71 66 54 37 23 15 11 8 8 8 6 4 1 0 0 0 0 0 0 0 0 0 0 0 0 0 0 0 0 0 0 0 0

GEFSSE_con_prob3kmehi_054.txt.gz
EHI
95 92 90 79 53 23 5 0 0 0 0 0 0 0 0 0 0 1 2 1 0 0 0 0 1 1 1 3 6 10 14 19 28 37 42 49 54 49 32 16 8 5 4
96 94 92 84 60 29 8 1 0 0 0 0 0 0 0 1 1 2 2 1 0 0 0 0 0 0 1 2 4 5 6 9 14 19 24 29 37 40 33 26 19 10 6
97 95 94 88 69 39 15 4 1 1 2 3 3 2 2 2 2 2 3 3 1 0 0 0 0 0 0 1 1 1 0 1 2 3 5 8 14 23 31 35 29 15 6
92 93 95 91 77 52 27 10 5 4 5 7 7 6 5 3 1 1 3 3 2 0 0 0 0 0 0 0 0 0 0 0 0 0 1 2 4 12 24 30 25 12 4
86 91 96 94 85 66 43 25 15 12 12 13 13 11 9 7 5 3 3 2 1 0 0 0 0 0 0 0 0 0 0 0 0 1 2 3 4 8 14 16 11 5 1
82 89 97 97 92 79 60 43 31 25 24 26 25 21 21 21 17 11 4 1 0 0 0 0 0 0 0 0 0 0 0 0 0 1 3 5 5 6 6 5 3 1 0
80 87 95 99 96 87 72 57 47 43 44 47 45 40 39 38 30 19 7 2 0 0 0 0 0 0 0 0 0 0 0 0 1 4 9 12 11 9 5 3 2 1 0
80 84 90 94 92 85 76 67 60 58 61 62 58 54 51 45 34 20 8 2 0 0 0 0 0 0 0 0 0 0 0 1 1 6 16 19 18 15 10 6 4 1 0
79 75 74 77 79 75 70 66 63 61 62 61 57 53 47 38 27 16 6 1 0 0 0 0 0 0 0 0 0 0 0 1 2 8 15 21 25 22 13 7 4 1 0
74 60 48 48 52 51 48 49 49 48 47 46 43 38 32 22 14 8 3 2 1 0 0 0 0 0 0 0 0 0 0 1 3 8 16 26 34 28 15 7 3 1 0
71 49 24 18 22 22 21 23 25 25 24 23 21 19 14 7 3 6 12 12 5 1 0 0 0 0 0 0 0 0 0 0 2 9 21 38 46 34 17 8 3 1 0
72 43 14 5 5 5 7 9 7 6 6 5 5 4 3 1 2 13 28 25 10 2 0 0 0 0 0 0 0 0 0 0 2 9 27 50 56 40 23 12 5 1 0
68 41 16 8 4 5 8 6 2 1 1 2 3 2 0 0 5 17 26 22 9 2 1 1 1 0 0 0 0 0 0 0 3 12 33 58 63 46 27 15 6 2 0
62 42 26 23 18 21 24 14 6 6 5 8 11 7 1 0 4 11 15 11 5 3 4 4 2 1 1 0 0 0 0 1 4 15 36 58 63 48 30 17 8 3 1
63 49 44 48 46 49 51 34 18 15 13 16 22 15 4 1 3 9 15 14 8 9 15 12 6 4 4 2 1 1 2 3 7 14 29 47 55 48 34 21 11 6 4
73 65 63 71 73 74 70 54 33 22 18 23 31 27 13 7 12 20 27 26 19 21 30 28 18 14 13 8 5 4 4 7 11 13 18 29 42 45 38 28 19 12 8
84 80 77 81 84 83 76 62 43 26 21 30 41 42 31 23 32 43 46 43 37 37 47 47 36 29 25 18 15 12 12 15 17 16 14 16 25 33 36 33 28 21 15
89 89 86 84 86 86 78 65 47 33 33 44 55 60 54 48 56 65 63 57 55 57 61 58 50 43 35 31 27 24 24 26 23 19 16 13 14 19 26 31 31 27 22
91 91 89 86 86 86 80 69 53 46 52 63 73 78 76 69 72 77 73 68 68 70 67 61 57 53 47 40 33 29 30 29 23 17 14 12 10 11 14 18 21 22 20
92 91 89 87 86 85 81 72 62 59 68 77 84 89 86 80 79 79 75 73 74 71 65 61 58 56 53 43 28 21 20 19 15 11 8 7 6 5 4 5 8 9 10
93 90 86 84 85 85 80 75 71 70 76 83 87 89 87 83 81 77 72 70 71 67 60 56 53 51 47 36 21 11 7 5 5 4 3 2 2 1 0 0 1 2 3
93 88 80 77 81 81 77 75 77 78 81 84 85 85 85 82 78 72 65 62 62 58 51 45 44 43 37 25 14 7 2 1 1 1 0 0 0 0 0 0 0 0 1
89 84 77 74 75 74 71 71 77 82 83 82 83 81 77 74 70 63 55 52 50 46 40 35 34 33 27 17 9 4 2 1 0 0 0 0 0 0 0 0 0 0 0
79 79 78 75 73 72 71 71 76 80 80 78 79 75 66 60 56 49 42 38 36 33 30 27 25 21 17 11 5 2 1 1 0 0 0 0 0 0 0 0 0 0 0
63 66 69 70 69 68 67 69 70 71 69 67 68 65 54 43 37 31 26 23 22 21 21 19 16 12 8 6 3 1 0 0 0 0 0 0 0 0 0 0 0 0 0
50 52 56 59 62 62 59 60 62 61 57 56 57 55 45 31 23 19 15 13 14 14 14 12 9 6 5 4 2 1 0 0 0 0 0 0 0 0 0 0 0 0 0

GEFSSE_con_prob3kmehi_060.txt.gz
EHI
7 8 8 10 14 13 9 9 10 12 21 33 38 37 34 33 33 29 25 22 17 11 6 4 3 3 2 3 5 6 6 10 17 21 21 20 24 34 40 31 14 6 7
21 18 14 16 19 16 10 8 8 8 14 23 26 26 25 25 24 19 15 13 10 7 4 3 2 2 2 2 3 5 5 8 15 19 20 21 28 40 47 38 21 10 10
44 33 25 25 26 21 13 8 5 3 6 11 13 12 12 11 9 7 4 4 3 2 1 1 1 1 1 1 2 3 3 5 10 12 12 13 25 43 51 43 29 18 13
63 48 36 35 35 28 19 10 3 1 2 4 5 4 3 3 2 1 0 1 1 0 0 0 0 0 0 1 1 1 1 3 4 4 3 3 13 32 42 36 26 18 12
73 60 49 47 45 37 27 15 5 1 0 1 1 0 0 1 1 0 0 0 0 0 0 0 0 0 0 0 0 1 1 1 1 0 0 0 4 16 25 22 15 10 8
78 70 63 60 55 49 40 27 14 5 1 0 0 0 0 0 0 0 0 0 0 0 0 0 0 0 0 0 0 0 1 1 0 0 0 0 3 9 15 14 10 7 6
84 78 72 68 64 61 56 43 27 12 4 1 0 0 0 0 0 0 0 0 0 0 0 0 0 0 0 0 0 0 0 0 0 0 0 0 6 14 16 14 12 10 8
88 83 73 66 65 68 69 59 42 23 10 2 0 0 0 0 0 0 0 0 0 0 0 0 0 0 0 0 0 0 0 0 0 0 0 2 11 21 21 17 18 16 11
91 86 73 60 60 66 68 64 51 33 16 5 1 1 0 0 0 0 0 0 0 0 0 0 0 0 0 0 0 0 0 0 0 0 0 4 16 27 26 21 18 14 10
89 85 75 64 61 60 59 57 51 36 21 10 4 2 1 0 0 0 0 0 0 0 0 0 0 0 0 0 0 0 0 0 0 0 1 8 23 33 31 21 13 8 7
81 80 76 71 68 63 58 52 45 34 22 13 8 4 2 1 0 0 0 0 0 0 0 0 0 0 0 0 0 0 0 0 0 0 3 13 28 37 32 20 10 7 5
72 73 72 71 70 68 67 59 45 30 19 12 8 5 2 1 0 0 0 0 0 0 0 0 0 0 0 0 0 0 0 0 0 0 6 20 34 39 34 24 15 11 8
66 69 67 64 62 64 67 62 44 24 12 8 5 3 1 0 0 0 0 0 0 0 0 0 0 0 0 0 0 0 0 0 0 0 9 26 40 43 38 31 24 16 13
64 65 63 56 49 47 51 46 30 14 6 4 3 1 0 0 0 0 0 0 0 0 0 0 0 0 0 0 0 0 0 0 0 1 12 31 45 46 40 33 26 18 13
64 64 58 47 36 31 29 22 11 5 2 1 1 0 0 0 0 0 0 0 0 0 0 0 0 0 0 0 0 0 0 0 0 2 12 30 45 46 37 29 22 14 10
67 63 51 35 25 20 15 8 2 1 0 0 0 0 0 0 0 0 0 0 0 0 0 0 0 0 0 0 0 0 0 0 1 4 11 22 34 40 36 30 23 16 12
65 61 48 32 22 15 9 3 0 0 0 0 0 0 0 0 0 0 0 0 0 0 0 0 0 0 0 0 0 0 0 0 1 5 9 13 19 26 31 31 27 23 20
65 64 56 44 35 25 14 6 3 2 1 1 0 0 0 0 0 0 0 0 0 0 0 0 0 0 0 0 0 0 0 0 1 3 5 6 7 11 18 23 25 25 23
68 70 69 63 57 47 35 22 13 9 8 6 4 2 2 2 2 2 1 2 3 3 2 2 1 1 0 0 0 0 0 0 0 1 2 1 2 3 5 10 17 19 18
68 73 75 74 71 67 60 48 34 25 21 17 11 7 5 6 9 9 7 7 7 6 4 2 2 1 0 0 0 0 0 0 0 0 0 0 0 0 0 3 7 10 10
66 70 75 77 75 73 72 65 54 43 34 25 17 10 9 13 18 20 15 10 8 6 3 1 1 0 0 0 0 0 0 0 0 0 0 0 0 0 0 0 2 3 3
57 59 64 68 68 68 67 65 61 52 38 26 16 11 11 17 23 23 19 15 10 6 2 1 1 1 1 0 0 0 0 0 0 0 0 0 0 1 0 0 0 0 0
39 42 45 50 54 55 56 58 57 48 33 21 14 10 10 15 18 18 17 17 14 9 5 3 2 3 3 2 1 0 0 0 0 0 0 0 0 0 0 0 0 0 0
26 27 31 36 41 42 44 48 48 39 26 18 15 11 9 10 12 12 12 13 12 10 8 6 4 4 4 4 2 1 0 0 0 0 0 0 0 0 0 0 0 0 0
17 19 22 27 31 32 33 35 34 27 19 16 15 13 9 8 8 8 8 8 7 8 7 5 4 3 4 4 3 2 1 0 0 0 0 0 0 0 0 0 0 0 0
13 15 18 22 25 26 25 24 21 17 14 14 14 13 10 7 6 6 6 6 5 5 5 4 3 3 3 3 3 2 1 0 0 0 0 0 0 0 0 0 0 0 0

GEFSSE_con_prob3kmehi_066.txt.gz
EHI
22 22 17 13 25 54 83 97 100 97 91 86 82 73 61 51 41 27 16 12 10 8 4 2 3 6 9 14 19 21 20 19 14 8 5 6 7 9 11 14 12 9 10
34 29 22 16 24 50 78 94 99 97 92 89 85 76 64 54 44 31 20 14 10 8 5 3 3 5 6 9 12 13 13 11 7 4 3 3 5 6 9 13 13 11 11
55 44 31 24 26 43 68 87 95 95 92 89 85 78 69 59 48 34 24 17 12 8 5 3 3 3 3 4 6 6 5 3 2 3 2 1 2 4 7 13 16 16 14
69 57 43 38 38 44 60 77 88 90 88 85 81 74 67 58 46 34 25 19 13 7 3 1 1 1 1 3 4 3 2 2 3 5 3 1 2 5 10 15 19 19 18
72 63 55 54 55 56 60 70 81 84 81 79 74 68 62 54 42 30 22 16 10 4 1 0 0 0 0 1 2 1 1 2 3 4 3 1 3 7 12 16 19 19 18
67 62 62 66 67 65 63 67 77 80 76 73 70 64 59 50 36 24 16 12 6 2 0 0 0 1 1 0 0 0 0 1 1 1 2 3 4 9 13 16 18 17 15
65 63 66 70 70 65 62 65 74 76 72 69 67 61 53 44 30 17 10 7 5 2 0 0 1 2 2 1 0 0 0 1 0 0 1 3 5 9 13 15 16 16 14
71 69 68 67 63 59 58 62 69 70 68 66 60 53 45 34 23 13 6 4 3 1 0 0 2 3 3 2 0 0 0 0 0 0 0 2 5 10 14 15 16 16 14
76 75 73 67 60 55 55 57 62 65 66 61 53 44 35 25 16 9 4 1 1 0 0 0 1 2 2 1 1 1 1 0 0 0 0 3 7 11 13 16 17 16 15
76 75 75 71 65 61 57 53 55 60 62 56 46 37 28 19 11 6 3 1 0 0 0 0 0 1 1 1 1 2 1 0 0 0 1 5 11 15 17 18 18 16 14
67 66 66 66 69 70 65 57 54 55 54 47 38 31 23 13 7 4 2 1 0 0 0 0 0 0 0 0 1 1 1 0 0 1 2 7 15 20 22 22 21 16 12
57 56 52 56 68 75 74 69 63 57 50 40 30 23 15 7 4 4 3 1 0 0 0 0 0 0 0 0 0 0 0 0 0 1 3 8 17 23 25 25 23 17 13
55 52 46 50 64 73 78 80 75 65 53 37 25 17 9 4 4 4 4 2 1 0 0 0 0 0 0 0 0 0 0 0 0 1 3 9 18 25 28 27 22 16 15
54 53 50 51 59 68 77 82 79 69 54 35 22 13 6 3 3 3 2 2 1 0 0 1 0 0 0 0 0 0 0 0 0 0 2 8 17 25 30 28 22 16 15
48 51 52 52 56 63 71 77 73 61 47 31 19 11 5 3 2 1 0 0 0 0 0 0 0 0 0 0 0 0 0 0 0 0 2 7 15 22 28 30 25 17 15
42 46 51 52 55 59 64 67 62 50 37 26 17 9 4 3 1 0 0 0 0 0 0 0 0 0 0 0 0 0 0 0 0 0 1 4 10 16 23 28 26 19 14
40 45 52 54 54 54 53 51 47 39 29 20 12 6 3 3 1 0 0 0 0 0 0 0 0 0 0 0 0 0 0 0 0 0 0 2 5 10 15 20 22 18 13
43 47 55 56 50 44 39 34 31 26 20 12 7 4 3 3 2 1 0 0 0 0 0 0 0 0 0 0 0 0 0 0 0 0 0 1 2 5 8 13 15 13 10
42 46 51 51 44 36 28 23 17 13 9 5 3 3 3 2 2 1 0 0 0 0 0 0 0 0 0 0 0 0 0 0 0 0 0 0 1 2 4 7 8 8 6
38 43 47 45 39 31 24 16 8 5 3 1 1 2 1 1 1 0 0 0 0 0 0 0 0 0 0 0 0 0 0 0 0 0 0 0 0 0 1 2 3 3 3
33 37 42 42 36 31 25 15 7 4 2 0 0 0 0 0 0 0 0 0 0 0 0 0 0 0 0 0 0 0 0 0 0 0 0 0 0 0 0 0 1 1 1
26 29 33 35 35 32 27 18 9 4 2 0 0 0 0 0 0 0 0 0 0 0 0 0 0 0 0 0 0 0 0 0 0 0 0 0 0 0 0 0 0 0 0
19 20 21 24 26 27 25 19 10 4 1 0 0 0 0 0 0 0 0 0 0 0 0 0 0 0 0 0 0 0 0 0 0 0 0 0 0 0 0 0 0 0 0
15 15 15 16 17 19 20 17 11 5 2 1 0 0 0 0 0 0 0 0 0 0 0 0 0 0 0 0 0 0 0 0 0 0 0 0 0 0 0 0 0 0 0
13 14 14 15 15 15 15 13 9 5 2 1 0 0 0 0 0 0 0 0 0 0 0 0 0 0 0 0 0 0 0 0 0 0 0 0 0 0 0 0 0 0 0
13 14 15 17 16 14 11 8 6 3 1 0 1 1 1 0 0 0 0 0 0 0 0 0 0 0 0 0 0 0 0 0 0 0 0 0 0 0 0 0 0 0 0

GEFSSE_con_prob3kmehi_072.txt.gz
EHI
32 47 54 43 32 33 43 50 51 49 41 31 26 24 21 19 17 15 11 8 4 4 6 10 15 16 13 12 12 10 10 11 10 7 4 1 0 0 0 0 0 0 0
45 56 62 56 47 46 54 58 59 58 51 42 38 34 29 24 21 17 13 9 5 4 5 8 14 18 18 16 15 13 11 11 9 6 4 1 0 0 0 0 1 1 0
61 66 70 70 67 63 67 69 70 69 64 58 54 49 41 33 27 22 17 12 8 6 5 6 11 17 18 18 15 12 10 9 7 5 2 0 0 0 0 0 1 1 1
68 71 75 80 81 79 77 78 80 79 74 69 65 59 50 41 33 26 19 13 10 8 6 6 9 12 14 13 11 9 7 6 4 2 0 0 0 0 0 0 1 1 0
64 70 80 87 90 90 87 86 87 85 79 74 68 62 55 48 39 29 19 13 11 9 7 7 8 9 10 10 8 6 4 3 2 0 0 0 0 0 0 0 1 0 0
55 67 82 91 94 95 92 88 87 86 82 76 69 62 56 50 41 29 18 11 9 8 7 6 6 7 7 8 7 5 2 1 0 0 0 0 1 1 1 0 0 0 0
54 66 82 92 94 94 90 87 86 86 84 79 71 62 56 49 40 28 17 9 7 7 6 5 5 5 6 6 5 3 1 0 0 0 0 1 3 4 2 0 0 0 0
60 68 81 89 91 88 85 84 85 86 85 81 72 62 52 44 37 27 16 9 7 7 5 5 5 4 5 4 2 1 0 0 0 0 0 2 6 6 3 0 0 0 0
60 68 78 82 82 79 77 78 81 83 85 81 71 58 44 35 30 23 15 10 9 8 6 5 4 3 3 2 0 0 0 0 0 0 0 4 10 9 3 1 1 0 0
60 66 75 77 72 66 63 65 69 73 78 75 63 49 34 23 19 15 12 11 11 8 6 5 4 2 1 0 0 0 0 0 0 0 0 6 12 9 3 1 0 0 1
64 67 73 74 66 51 44 47 49 52 55 50 42 34 22 12 10 9 13 16 12 7 5 4 4 2 0 0 0 0 0 0 0 0 3 10 13 7 2 1 1 1 1
69 69 70 70 62 48 39 39 36 33 30 24 22 22 15 10 7 8 15 18 11 5 4 3 3 1 0 0 0 0 0 0 0 0 6 15 13 5 2 2 3 3 2
70 69 69 69 64 57 51 46 40 34 26 18 20 23 20 16 11 9 12 13 8 4 3 3 2 0 0 0 0 0 0 0 0 0 8 16 13 5 3 4 5 4 3
62 63 66 70 72 71 67 60 53 47 38 32 34 34 27 21 14 11 11 9 5 3 3 3 1 0 0 0 0 0 0 0 0 0 6 12 12 8 6 5 6 5 4
50 53 60 70 77 79 78 73 63 56 50 47 45 37 28 21 15 13 15 13 7 4 4 3 2 1 1 1 0 0 0 0 0 0 3 8 11 11 9 6 6 6 5
37 44 54 66 75 79 80 76 65 58 56 51 44 36 26 20 16 15 17 17 12 9 8 6 3 2 2 1 0 0 0 0 0 0 1 4 8 10 10 10 9 9 9
30 38 49 57 65 72 73 70 61 56 54 50 44 38 29 21 18 20 19 17 15 14 14 10 5 3 2 1 1 0 0 0 1 2 1 3 4 6 10 11 11 12 13
31 39 45 46 51 59 65 64 58 54 54 55 51 45 36 26 22 23 23 20 18 19 17 12 8 5 2 2 2 1 0 0 2 3 2 2 3 4 7 9 10 11 12
36 42 43 38 38 46 55 61 60 57 58 60 59 53 45 35 28 26 26 22 20 22 20 14 13 10 6 4 3 1 0 1 2 2 2 2 2 4 5 7 9 9 9
36 41 40 35 34 38 46 55 57 55 55 59 59 54 47 37 31 30 28 24 23 26 24 18 15 14 9 6 4 1 0 2 3 3 1 2 3 3 3 5 8 8 7
32 36 36 34 37 41 45 50 52 48 47 51 51 47 39 33 32 34 34 30 30 31 27 20 17 16 11 9 7 3 1 2 4 4 2 2 2 1 1 2 5 7 7
24 29 33 34 39 45 49 51 49 44 41 42 42 38 33 29 32 36 37 36 35 35 29 22 20 18 13 10 9 7 4 3 3 3 2 1 1 1 0 1 3 6 6
15 20 26 32 38 44 49 50 46 39 35 34 33 30 25 24 26 28 30 33 36 35 29 23 20 18 14 10 10 10 8 5 3 2 1 1 1 1 1 2 4 5 5
10 12 18 25 33 40 45 44 39 32 28 24 21 17 14 13 13 14 16 21 26 26 21 16 15 14 12 10 9 9 9 7 5 2 0 0 1 1 1 2 3 3 2
9 10 13 19 26 33 37 36 31 25 19 14 11 8 6 5 4 4 6 8 11 11 9 8 9 9 8 7 7 6 6 5 4 2 1 1 0 0 1 1 1 1 0
10 10 11 15 21 26 30 29 24 18 12 8 6 5 3 2 2 1 2 3 5 4 4 4 5 6 4 3 3 3 2 2 2 2 2 2 1 1 1 1 0 0 0

GEFSSE_con_prob3kmehi_078.txt.gz
EHI
92 90 86 71 45 21 8 4 1 0 0 0 0 0 0 0 1 3 8 11 9 4 2 1 0 0 0 0 0 0 1 2 6 13 19 21 19 14 7 2 1 2 2
94 92 88 75 50 26 12 6 2 1 0 1 1 0 0 0 0 2 5 8 7 4 2 1 0 0 1 1 0 0 1 2 5 8 11 12 11 8 5 4 5 5 4
95 93 88 78 58 34 18 10 6 3 2 3 3 1 0 0 1 2 4 5 6 5 4 2 1 1 3 3 1 0 1 1 2 3 3 3 3 3 3 7 11 9 5
91 88 85 79 65 46 27 16 11 7 5 6 6 3 1 1 2 3 4 5 6 5 4 3 2 3 4 3 1 0 0 0 0 0 0 0 1 2 2 5 7 6 3
82 81 84 82 72 57 40 26 19 13 9 8 9 7 5 5 5 5 4 5 5 3 2 2 3 3 3 1 0 0 0 0 0 1 1 1 2 3 2 1 1 1 1
78 80 84 83 75 66 55 42 31 24 17 14 14 13 11 10 7 5 4 4 3 1 1 2 3 2 1 0 0 0 0 0 2 3 2 3 4 4 2 1 0 0 0
83 86 87 82 75 70 65 57 49 40 32 25 24 22 18 14 9 6 4 2 1 0 1 2 2 1 0 0 0 0 0 1 4 5 4 9 13 8 2 1 0 0 0
87 90 89 81 74 71 71 69 66 61 52 44 37 32 26 18 10 7 5 1 0 0 0 1 1 0 0 0 0 0 0 1 4 4 6 15 20 13 5 2 0 0 0
88 91 88 79 71 68 69 72 74 73 68 60 48 36 27 17 7 5 4 2 0 0 0 0 0 0 0 0 0 0 0 1 2 2 6 15 20 15 9 4 1 0 0
88 88 84 75 69 63 61 65 69 70 70 64 49 32 21 10 3 2 4 4 1 0 0 0 0 0 0 0 0 0 0 0 1 1 8 19 23 19 12 7 3 1 0
89 85 75 67 62 55 52 57 61 57 54 49 36 23 13 5 0 0 4 6 3 0 0 0 0 0 0 0 0 0 0 0 0 2 13 30 36 29 20 11 5 1 0
89 83 66 55 51 43 44 56 56 43 34 26 20 15 9 3 1 3 9 11 5 1 0 1 1 0 0 0 0 0 0 0 0 3 21 43 48 37 25 16 8 2 0
88 81 63 49 42 36 44 58 50 36 27 18 15 14 7 3 5 13 20 16 6 1 1 2 2 1 0 0 0 0 0 0 0 6 25 46 48 35 24 18 12 5 2
86 81 69 59 50 46 55 60 45 32 28 25 25 21 12 7 9 20 25 16 6 2 2 3 2 1 0 0 0 0 0 0 0 6 22 38 38 29 22 18 16 11 8
84 81 76 74 70 68 72 66 46 36 33 35 39 34 21 15 16 22 24 17 8 4 3 2 2 1 1 1 1 1 1 1 2 5 12 23 26 25 21 19 19 18 17
79 79 79 82 83 82 80 72 57 48 48 50 55 48 33 28 30 32 32 25 13 8 8 7 6 6 5 3 3 3 3 4 6 7 8 11 16 20 20 18 18 18 18
76 74 74 77 80 82 80 74 66 60 59 64 68 63 47 42 46 47 42 33 19 15 21 20 17 15 11 8 9 8 7 7 10 11 9 8 9 12 15 15 15 15 14
75 71 68 68 72 76 77 72 65 60 60 66 72 68 56 48 51 51 45 37 26 24 28 28 24 20 16 14 14 12 9 8 9 10 11 9 9 9 10 12 14 13 11
73 70 66 64 65 68 69 65 57 51 52 57 61 59 52 46 45 45 43 40 35 31 29 27 25 22 18 14 12 11 10 9 9 9 10 10 10 9 8 9 11 9 6
69 67 65 63 61 60 59 54 45 39 38 41 44 45 43 39 37 36 37 38 39 37 32 28 27 26 19 12 7 6 8 9 10 9 8 7 7 7 6 6 7 5 3
60 59 59 58 56 55 53 46 38 31 28 28 29 31 31 31 30 29 29 32 36 38 37 33 32 28 21 14 8 4 5 7 8 8 6 4 3 4 4 4 4 4 3
44 45 48 50 50 48 48 45 37 28 23 21 20 20 22 25 26 26 28 30 34 39 38 35 33 28 22 18 13 6 3 2 3 3 3 3 3 2 2 2 3 4 5
28 30 34 39 42 42 44 45 38 28 20 18 17 16 18 22 24 25 27 29 31 33 32 31 31 28 23 20 16 8 2 1 1 1 1 2 2 1 0 0 1 2 3
17 19 25 30 33 36 41 42 36 26 18 15 14 13 15 18 20 20 21 22 23 21 21 23 24 24 20 16 12 7 2 1 0 0 1 1 1 1 0 0 0 1 1
10 13 19 24 26 29 34 34 29 21 14 10 9 9 10 12 13 13 13 14 13 12 12 14 16 16 13 8 5 4 2 1 0 0 0 0 0 0 0 0 0 0 0
7 10 15 19 23 26 27 25 21 15 10 6 5 6 7 8 8 7 7 9 9 7 7 9 10 9 6 3 1 1 1 0 0 0 0 0 0 0 0 0 0 0 0

GEFSSE_con_prob3kmehi_084.txt.gz
EHI
10 24 36 36 32 31 27 22 24 29 36 42 46 48 49 47 42 38 31 22 13 5 1 0 0 0 1 0 0 0 0 0 0 0 1 1 2 5 9 8 3 0 0
20 32 44 43 38 31 22 16 18 24 30 36 40 43 45 43 38 35 28 20 10 3 1 0 0 0 1 0 0 0 0 0 0 1 2 2 2 4 6 6 4 1 0
43 49 55 53 45 33 18 10 10 14 20 25 28 32 35 34 31 28 23 15 6 2 1 0 0 0 0 0 0 0 0 0 0 1 2 2 2 3 5 5 4 1 0
64 63 62 61 54 38 21 11 7 7 10 14 16 18 21 23 22 21 16 9 4 2 1 0 0 0 1 1 0 0 0 0 0 0 1 0 1 2 3 4 3 2 1
69 67 67 70 64 47 29 16 8 4 3 5 6 7 10 12 14 13 9 4 2 3 3 1 0 1 2 1 0 0 0 0 0 0 0 0 0 1 3 3 2 2 1
67 66 71 77 71 55 37 22 12 6 3 1 1 2 4 6 7 7 4 1 0 2 3 1 0 1 1 1 0 0 0 0 0 0 0 0 0 1 4 4 2 1 1
72 70 76 80 73 59 43 29 18 11 6 2 1 2 3 4 4 3 2 0 0 0 1 0 0 0 0 0 0 0 0 0 0 0 0 0 0 1 4 5 4 3 2
81 77 77 77 70 61 51 36 25 17 11 5 2 3 3 2 2 1 1 0 0 0 0 0 0 0 0 0 0 0 0 1 0 0 0 0 1 2 5 8 8 6 4
89 85 80 75 69 64 57 46 33 24 17 10 5 3 2 1 0 0 0 0 0 0 0 0 0 0 0 0 0 0 0 0 0 0 0 0 3 6 8 12 13 9 7
91 89 85 80 75 71 65 54 43 32 24 17 9 4 2 0 0 0 0 0 0 0 0 0 0 0 0 0 0 0 0 0 0 0 0 1 6 10 12 14 13 10 8
89 89 88 85 82 79 74 66 56 45 35 26 18 9 4 1 0 0 0 0 0 0 0 0 0 0 0 0 0 0 0 0 0 0 0 3 8 13 15 15 13 11 10
86 85 85 85 83 82 81 79 73 62 50 39 28 17 10 4 1 0 0 0 0 0 0 0 0 0 0 0 0 0 0 0 0 0 1 6 11 14 17 18 16 14 12
84 81 80 80 78 78 81 84 83 76 64 50 36 24 14 6 2 1 0 0 0 0 0 0 0 0 0 0 0 0 0 0 0 0 2 8 13 16 18 19 17 15 13
77 75 73 72 72 73 76 80 82 77 67 53 38 25 14 6 3 1 0 0 0 1 1 1 1 0 0 0 0 0 0 0 0 0 3 9 13 15 17 16 14 13 11
64 63 61 61 62 64 67 72 72 66 57 45 33 22 12 6 2 1 0 0 1 2 2 2 1 0 0 0 0 0 0 0 0 0 2 7 11 15 16 14 11 10 9
52 50 49 49 50 52 57 61 60 53 42 31 23 18 11 5 3 2 0 0 1 3 3 1 1 0 0 0 0 0 0 0 0 0 1 5 10 15 16 13 10 10 11
47 44 42 43 43 44 49 51 49 42 30 19 15 13 9 5 4 3 2 1 2 2 2 1 0 0 0 0 0 0 0 0 0 0 0 2 7 12 13 11 9 11 12
43 40 38 39 39 41 45 46 42 34 23 13 11 11 8 5 4 4 4 2 1 1 1 0 0 0 0 0 0 0 0 0 0 0 0 1 3 5 5 5 6 8 9
37 34 32 32 32 35 41 43 37 28 18 12 10 10 7 4 3 3 3 2 1 0 0 0 0 0 0 0 0 0 0 0 0 0 0 0 0 0 0 1 2 4 4
31 29 27 26 26 28 33 36 33 25 15 10 9 8 5 3 1 1 1 1 1 0 0 0 0 0 0 0 0 0 0 0 0 0 0 0 0 0 0 0 1 1 1
23 23 23 22 21 23 25 27 27 21 13 8 6 5 3 1 0 0 0 0 0 0 0 0 0 0 0 0 0 0 0 0 0 0 0 0 0 0 0 0 0 0 0
13 14 16 16 17 18 20 21 20 15 10 6 6 5 3 2 1 0 0 0 0 0 0 0 0 0 0 0 0 0 0 0 0 0 0 0 0 0 0 0 0 0 0
6 7 10 11 11 13 15 16 14 11 8 6 6 5 4 2 1 0 0 0 0 0 0 0 0 0 0 0 0 0 0 0 0 0 0 0 0 0 0 0 0 0 0
3 4 5 6 7 8 10 11 10 8 6 5 4 3 3 1 0 0 0 0 0 0 0 0 0 0 0 0 0 0 0 0 0 0 0 0 0 0 0 0 0 0 0
2 2 3 4 4 4 6 7 6 6 5 3 2 1 1 0 0 0 0 0 0 0 0 0 0 0 0 0 0 0 0 0 0 0 0 0 0 0 0 0 0 0 0
1 1 2 3 3 4 4 5 5 5 4 2 1 0 0 0 0 0 0 0 0 0 0 0 0 0 0 0 0 0 0 0 0 0 0 0 0 0 0 0 0 0 0

GEFSSE_con_prob3kmehi_090.txt.gz
EHI
32 49 63 61 56 60 73 90 98 99 97 92 84 74 63 52 37 23 16 10 5 2 0 0 0 0 1 2 2 2 1 0 0 0 0 0 0 0 0 0 0 0 0
45 56 67 66 60 63 75 88 96 98 97 94 91 83 71 61 49 34 21 12 6 2 1 0 0 0 0 2 3 2 1 0 0 0 0 0 0 0 0 0 0 0 0
65 68 71 71 66 66 74 83 89 93 94 95 96 92 81 72 64 49 31 18 9 5 2 0 0 1 1 2 3 2 1 0 0 0 0 0 0 0 0 0 0 0 0
79 77 76 75 72 71 75 79 81 84 88 91 93 90 82 75 68 57 41 26 17 13 8 4 2 2 2 3 3 1 1 0 0 0 0 0 0 0 0 0 0 0 0
83 81 79 79 79 77 78 79 79 78 80 83 83 80 76 72 67 61 49 35 27 22 14 9 5 2 2 3 2 1 1 0 0 0 0 0 0 0 0 0 0 0 0
82 80 82 85 84 82 81 82 81 76 73 73 71 69 68 66 65 60 50 39 30 22 16 12 8 4 3 3 1 0 0 0 0 0 0 0 0 0 0 0 0 0 0
78 78 83 89 89 85 84 85 81 75 69 65 60 56 55 56 56 52 43 34 26 17 12 11 10 7 5 3 2 1 1 1 0 0 0 0 0 0 0 0 0 0 0
73 75 81 88 90 87 84 84 82 75 67 59 52 45 41 43 43 39 32 26 19 13 8 7 8 6 4 3 3 3 3 2 1 0 0 0 0 1 1 2 2 1 0
67 73 78 83 85 83 81 83 82 75 65 56 47 38 32 31 29 25 23 19 15 8 4 3 4 5 3 2 2 3 3 2 1 0 0 0 0 1 3 4 3 2 1
60 67 74 79 81 80 79 81 81 75 66 54 43 33 26 21 17 15 15 14 11 5 2 1 3 4 3 1 1 1 1 1 0 0 0 0 0 2 5 6 5 2 1
49 55 65 73 78 79 80 82 82 78 69 56 43 32 25 17 12 11 11 10 7 4 1 2 3 3 1 0 0 0 0 0 0 0 0 0 0 1 4 6 5 3 1
40 44 52 63 73 79 82 84 85 82 74 62 50 39 31 22 15 11 10 8 5 2 1 1 2 2 1 0 0 0 0 0 0 0 0 0 0 0 2 3 3 2 1
38 41 44 52 64 74 78 82 82 80 76 69 60 51 41 30 20 13 9 6 4 2 2 2 2 1 0 0 0 0 0 0 0 0 0 0 0 0 1 1 1 2 2
42 43 42 45 55 64 69 73 73 72 72 70 65 57 46 35 24 14 7 4 3 2 2 2 1 0 0 0 0 0 0 0 0 0 1 1 1 1 1 1 1 2 3
44 43 42 45 51 56 60 63 65 66 67 67 63 56 46 36 26 16 7 2 1 1 1 1 0 0 0 0 0 0 0 0 0 1 2 3 3 4 4 3 3 3 4
38 39 41 44 49 52 54 56 59 61 62 61 57 52 44 34 25 17 10 5 2 0 0 0 0 0 0 0 0 0 0 0 0 1 2 5 7 7 7 6 5 4 3
31 34 37 41 46 48 48 49 53 55 55 53 51 47 40 31 23 17 12 8 5 3 1 0 0 0 0 1 0 0 0 0 0 0 1 4 7 8 7 6 6 5 4
28 32 36 39 42 42 41 41 44 45 45 44 43 39 33 27 21 17 12 8 7 6 2 0 0 0 0 0 0 0 0 0 0 0 0 1 3 4 4 4 4 3 3
24 29 34 36 36 34 33 32 33 34 35 34 32 29 27 25 20 16 11 6 5 5 2 0 0 0 0 0 0 0 0 0 0 0 0 0 0 1 1 1 1 1 2
19 23 28 28 27 26 26 27 27 27 27 25 21 20 21 20 17 14 10 4 3 3 1 0 0 0 0 0 0 0 0 0 0 0 0 0 0 0 0 0 0 0 1
13 16 19 19 18 18 21 23 23 22 20 17 15 13 12 11 11 10 7 3 1 1 0 0 0 0 0 0 0 0 0 0 0 0 0 0 0 0 0 0 0 0 0
7 9 10 11 12 13 15 17 17 15 13 11 9 7 5 5 6 5 3 1 0 0 0 0 0 0 0 0 0 0 0 0 0 0 0 0 0 0 0 0 0 0 0
3 3 4 6 8 11 12 12 13 12 9 6 4 3 2 3 3 2 1 1 1 1 0 0 0 0 0 0 0 0 0 0 0 0 0 0 0 0 0 0 0 0 0
2 1 1 2 5 8 9 10 11 10 8 4 1 1 1 1 2 1 1 2 2 1 0 0 0 0 0 0 0 0 0 0 0 0 0 0 0 0 0 0 0 0 0
2 2 1 1 3 5 6 7 7 6 4 2 0 0 0 0 0 0 1 1 1 1 0 0 0 0 0 0 0 0 0 0 0 0 0 0 0 0 0 0 0 0 0
3 3 2 1 2 4 4 4 3 2 1 0 0 0 0 0 0 0 0 1 0 0 0 0 0 0 0 0 0 0 0 0 0 0 0 0 0 0 0 0 0 0 0

GEFSSE_con_prob3kmehi_096.txt.gz
EHI
38 50 53 40 29 24 25 30 31 26 23 21 17 17 15 10 6 6 7 8 6 3 1 3 4 5 4 3 2 2 1 0 0 0 0 0 0 0 0 0 0 1 0
48 55 53 43 36 33 36 44 47 42 37 32 29 27 25 19 12 10 9 9 9 5 4 6 9 10 9 7 5 5 3 1 0 0 0 0 0 0 0 0 0 1 1
56 56 50 45 46 47 53 62 65 63 59 54 49 46 42 33 24 18 13 11 11 8 7 10 13 13 13 12 10 7 3 1 0 0 0 0 0 0 0 0 0 0 0
50 50 47 48 53 59 66 72 76 78 79 76 69 63 56 46 37 29 20 15 13 12 11 12 13 13 15 16 13 7 2 0 0 0 0 0 0 0 0 0 0 0 0
36 41 49 55 59 66 72 76 80 86 91 91 85 76 68 58 48 39 29 21 18 17 15 14 17 18 16 15 13 7 1 0 0 0 0 0 0 0 0 0 0 0 0
23 31 45 56 61 67 73 77 81 87 94 96 93 88 80 68 58 49 38 28 24 22 20 20 24 24 18 13 10 5 1 0 0 0 0 0 0 0 0 0 0 0 0
15 25 40 48 50 56 67 75 80 85 91 94 93 92 88 79 69 59 47 37 32 28 25 26 27 25 19 13 7 2 0 0 0 0 0 1 2 2 1 0 0 0 0
13 24 37 37 32 37 52 68 77 84 87 89 90 90 88 83 75 66 55 45 38 32 27 27 25 21 17 11 5 1 0 0 0 0 0 2 4 3 1 0 0 0 0
14 23 30 26 19 21 33 48 64 76 83 86 86 85 81 76 68 60 53 47 41 33 26 22 19 16 12 8 4 1 0 0 0 0 0 2 3 2 0 0 0 0 0
19 22 23 18 13 12 17 27 42 59 71 75 75 72 64 54 46 40 40 43 40 31 23 16 13 11 8 5 2 1 0 0 0 0 0 2 2 1 0 0 0 0 0
27 24 21 18 14 12 16 22 28 36 46 50 51 49 39 27 22 23 33 43 36 25 17 11 9 8 5 2 1 0 0 0 0 0 2 4 3 1 0 0 0 0 0
33 28 23 21 20 21 27 33 30 28 30 30 31 32 25 19 15 22 40 45 31 18 13 10 8 6 2 1 1 1 0 0 0 0 3 6 4 1 1 1 1 1 1
36 32 27 27 28 30 39 45 43 41 41 36 35 37 35 33 29 32 43 41 26 15 12 11 9 4 1 1 1 1 0 0 0 2 5 7 4 2 1 1 0 0 0
35 33 32 35 37 40 46 51 52 55 57 55 55 54 53 51 44 42 45 39 26 18 16 15 10 6 3 1 1 0 0 0 1 5 10 10 7 4 2 1 1 0 0
32 31 33 39 43 48 52 52 50 55 60 63 66 67 66 63 55 50 52 47 35 25 23 19 14 11 8 4 2 1 1 2 3 6 11 15 13 10 7 6 5 4 2
31 30 31 36 42 48 51 48 45 50 56 60 65 68 69 67 61 57 57 55 47 36 31 25 19 16 15 11 7 5 5 6 6 7 10 15 17 15 13 12 11 10 7
25 26 27 29 37 45 46 44 44 46 51 55 59 63 65 65 64 61 59 57 52 47 45 40 32 27 24 19 14 10 9 9 8 8 10 14 15 14 13 14 13 12 10
18 21 23 24 31 42 46 45 43 44 48 53 56 56 56 57 59 59 59 58 57 55 55 53 49 44 36 28 21 15 11 10 8 7 8 10 12 11 10 10 11 9 7
19 22 23 24 29 38 45 46 44 43 47 53 54 50 46 46 49 52 56 57 55 56 58 57 58 56 47 34 25 18 13 12 10 8 6 7 9 10 8 8 9 7 5
22 23 24 26 29 34 40 43 43 42 45 47 47 42 37 36 38 42 47 49 48 50 56 57 57 57 50 37 23 15 13 12 11 9 6 5 6 6 6 6 8 6 4
18 19 20 22 26 31 36 38 38 39 39 39 37 33 30 28 28 31 37 41 42 45 49 51 52 50 42 32 20 12 8 8 8 8 6 4 3 3 3 5 5 4 2
11 12 13 15 20 25 28 29 29 30 31 29 28 26 24 21 20 23 30 33 36 40 41 42 40 37 30 22 18 12 6 4 4 5 4 3 2 2 1 2 2 2 1
9 9 9 12 15 19 20 21 21 22 21 19 20 22 20 16 15 19 24 27 30 33 36 34 28 24 19 15 15 14 11 6 4 4 3 1 0 0 0 0 1 1 0
10 9 10 11 13 14 15 15 16 16 15 14 17 18 17 14 13 15 20 24 26 27 28 25 20 17 14 12 14 16 15 11 5 2 1 0 0 0 0 0 0 0 0
9 9 9 10 10 11 11 12 13 13 13 14 15 16 14 13 13 14 17 20 22 23 22 19 17 16 14 13 13 14 13 10 5 1 0 0 0 0 0 0 0 0 0
7 7 9 10 10 9 8 9 11 12 13 14 14 13 12 12 13 15 16 17 19 20 21 18 17 17 15 13 12 10 9 6 3 1 1 0 0 0 0 0 0 0 0

GEFSSE_con_prob3kmehi_102.txt.gz
EHI
59 62 61 48 31 17 7 1 0 0 0 0 0 1 2 3 5 9 11 10 6 2 1 0 0 0 0 0 0 0 1 4 6 8 9 9 7 3 2 4 4 2 0
63 63 60 48 32 17 6 1 0 0 0 0 0 0 1 1 3 6 6 6 4 2 1 0 0 0 0 0 0 0 0 2 3 3 4 5 4 2 1 3 4 1 0
57 54 51 45 31 16 6 1 0 0 0 0 0 0 0 0 1 2 3 2 1 1 0 0 0 0 0 0 0 0 0 0 0 0 0 1 2 1 1 3 3 1 0
41 39 40 39 29 15 6 2 1 0 0 0 0 0 0 0 0 1 1 1 0 0 0 0 0 0 0 1 1 0 0 0 0 0 0 0 1 2 2 2 2 1 0
32 33 36 36 29 17 8 5 4 3 2 2 1 1 2 2 1 1 1 0 0 1 1 1 1 1 1 2 2 1 0 0 0 1 1 1 2 4 3 1 1 0 0
34 35 37 37 32 22 13 9 8 8 7 7 6 6 7 7 6 3 2 1 1 1 2 3 3 3 2 1 1 1 0 0 1 2 3 5 5 6 5 2 0 0 0
40 38 38 41 38 28 18 13 12 13 14 16 16 16 16 15 12 8 5 4 3 1 2 4 4 3 2 1 1 0 0 1 4 4 5 10 11 10 7 2 0 0 0
45 37 35 39 38 31 23 19 18 19 23 28 31 30 27 23 17 11 8 7 4 1 1 4 5 3 2 1 0 0 1 2 4 3 6 12 15 11 7 3 1 0 0
43 34 27 28 29 27 26 26 27 29 32 37 40 39 34 26 17 10 8 7 5 2 2 4 5 3 2 1 0 0 1 2 2 2 5 11 13 11 8 4 1 0 0
38 31 21 19 19 18 22 26 29 32 35 36 36 34 28 19 11 6 8 11 10 4 2 3 3 2 1 0 0 0 1 1 1 3 8 12 13 12 10 5 1 0 0
39 31 23 19 16 13 17 22 23 25 27 26 24 22 16 8 3 4 14 25 20 8 2 1 2 1 0 0 0 0 0 0 1 5 13 20 19 15 11 6 2 0 0
46 37 30 28 23 21 24 24 19 17 18 15 13 13 8 3 2 10 30 45 33 14 4 2 2 1 0 0 0 0 0 0 1 6 19 31 29 20 12 7 2 0 0
47 43 39 39 38 37 39 32 22 21 22 18 17 18 10 4 8 23 47 55 41 19 8 5 3 1 0 0 1 1 1 1 4 11 25 37 34 23 13 7 3 1 0
48 44 42 45 47 50 52 44 32 33 37 36 40 39 24 12 15 33 52 54 38 22 14 10 5 2 1 1 1 2 3 4 8 16 27 36 34 24 13 8 5 2 0
49 44 43 48 53 59 62 55 44 46 51 55 61 60 44 29 29 41 54 52 36 24 21 17 10 6 6 5 3 5 7 8 11 17 24 31 32 25 17 11 9 6 3
47 46 46 51 60 67 67 60 54 55 60 65 71 70 58 51 49 53 60 56 41 30 29 24 18 17 17 14 13 14 15 16 18 22 23 25 27 25 22 18 15 12 10
43 46 48 51 60 66 65 61 60 64 67 71 74 73 66 61 61 62 64 61 49 41 39 35 31 30 30 28 26 25 25 25 28 31 29 24 20 19 20 20 18 16 14
39 45 46 47 55 62 61 60 61 65 70 72 73 74 69 63 63 64 64 62 57 53 50 45 42 41 37 34 31 29 29 31 33 35 35 30 22 17 17 18 17 15 12
34 40 42 44 51 57 59 60 60 63 68 69 70 71 68 61 59 60 61 61 58 56 54 50 48 44 37 31 26 24 26 29 32 32 32 32 27 22 19 17 16 13 10
30 35 38 42 48 53 58 60 60 61 63 64 65 65 61 56 51 52 54 55 54 52 50 50 47 41 33 25 19 17 19 22 24 25 26 26 25 23 20 17 14 12 11
24 28 32 36 40 45 52 57 58 58 58 57 58 56 51 46 43 44 46 47 47 45 44 44 42 36 29 22 17 13 12 13 14 17 19 18 15 14 13 12 10 8 8
18 21 25 28 32 39 47 52 54 55 53 51 52 51 43 36 33 36 39 41 41 40 39 39 38 33 27 22 18 14 9 6 6 8 10 9 5 4 4 5 4 3 2
14 16 19 24 28 34 42 48 51 52 50 47 45 43 36 29 25 27 31 34 35 33 34 35 35 32 28 25 22 18 11 6 3 3 3 2 1 0 0 1 1 1 1
11 13 17 21 24 28 34 39 42 43 43 40 36 33 30 26 21 19 22 27 29 27 28 30 31 30 29 28 26 22 16 9 3 1 0 0 0 0 0 0 0 0 0
10 11 14 17 19 21 24 26 27 28 29 28 27 25 25 24 22 18 19 22 25 25 25 25 24 23 25 25 24 21 15 8 3 1 0 0 0 0 0 0 0 0 0
9 10 12 14 16 17 18 19 19 19 20 21 22 20 21 23 22 20 19 21 23 24 25 22 19 18 21 22 20 17 12 6 2 1 1 0 0 0 0 0 0 0 0

GEFSSE_con_prob3kmehi_108.txt.gz
EHI
7 16 30 39 40 36 31 29 33 40 46 48 49 50 51 50 48 43 32 18 9 5 3 1 0 0 0 0 1 3 5 5 5 4 4 3 2 1 1 1 1 0 0
22 26 35 42 43 37 31 28 29 35 39 41 43 45 46 45 42 36 27 15 8 5 3 2 1 0 0 0 2 3 3 4 4 4 4 3 2 1 1 1 0 0 0
47 41 39 44 46 40 32 27 24 24 28 30 32 34 36 34 30 25 18 11 6 4 3 2 1 0 0 1 2 2 1 2 2 2 2 2 1 1 2 1 0 0 0
61 51 45 49 50 43 35 28 21 17 19 22 22 22 23 22 18 15 11 7 4 2 1 1 0 0 0 0 1 1 0 0 0 0 0 0 0 1 2 1 0 0 0
64 56 54 60 58 46 36 29 20 13 12 14 14 12 11 10 10 9 7 4 2 1 0 0 0 0 0 0 0 0 0 0 0 0 0 0 0 1 1 1 0 0 0
65 59 59 66 62 48 36 28 20 12 8 9 7 4 3 3 3 4 4 2 1 0 0 0 1 1 0 0 0 0 0 0 0 0 0 0 0 1 1 0 0 0 0
67 62 62 66 62 51 39 29 21 14 10 8 4 1 0 0 1 2 2 1 0 0 0 0 1 1 0 0 0 0 0 0 0 0 0 0 1 2 2 1 0 0 0
63 61 60 61 58 51 43 32 23 16 12 8 4 1 0 0 1 2 1 1 0 0 0 0 0 0 0 0 0 0 0 0 0 0 0 0 1 3 4 3 1 0 0
53 53 53 50 47 46 43 34 24 17 12 8 4 1 1 1 1 1 0 0 0 0 0 0 0 0 0 0 0 0 0 0 0 0 0 0 1 4 6 4 1 0 0
44 42 41 38 36 37 37 32 24 17 13 9 5 3 3 2 1 0 0 0 0 0 0 0 0 0 0 0 0 1 0 0 0 0 0 0 2 5 6 4 2 1 0
35 31 29 27 27 28 29 28 23 17 12 9 6 4 4 2 1 1 1 1 1 0 0 0 0 0 0 0 0 0 0 0 0 0 0 0 2 6 7 5 2 1 0
25 22 19 19 20 22 22 22 20 15 10 8 6 4 3 2 1 1 1 2 2 1 0 0 1 1 1 0 0 0 0 0 0 0 0 2 4 8 9 6 3 1 0
19 18 16 15 15 15 16 17 15 12 10 8 7 6 3 1 0 0 1 1 3 3 1 2 3 3 2 1 0 0 0 0 0 0 1 3 7 11 12 9 5 3 2
16 17 16 14 12 11 13 14 12 10 8 8 9 8 5 3 1 0 0 1 3 5 4 3 3 3 2 1 0 0 0 0 0 0 1 3 7 12 14 13 9 6 6
13 14 14 12 11 11 11 10 9 6 5 6 7 7 7 5 2 1 1 2 3 5 5 4 2 1 1 0 0 0 0 0 0 0 1 3 7 12 15 15 12 10 9
8 10 10 8 8 10 10 9 7 5 5 6 5 6 7 6 3 3 5 4 3 3 3 2 1 0 0 0 1 2 1 0 0 0 1 5 9 13 17 18 17 14 12
6 6 6 5 5 8 11 10 8 7 9 9 7 7 9 7 5 6 8 7 4 2 1 1 0 0 0 1 3 3 3 1 1 2 4 6 9 12 16 19 18 15 12
5 5 5 7 8 9 9 10 9 9 11 11 11 12 12 9 7 8 11 10 7 5 3 2 1 1 1 2 3 3 2 2 2 3 5 5 5 7 10 13 14 11 9
4 3 4 8 10 10 8 8 10 12 14 14 14 16 16 13 11 12 13 12 10 8 6 5 4 2 1 2 3 1 0 1 2 3 4 3 2 2 3 5 6 6 5
3 2 3 5 7 8 8 10 12 15 16 14 13 14 16 15 16 18 18 16 14 11 9 8 7 4 2 2 2 1 0 0 1 1 2 1 0 0 0 1 3 3 4
3 2 2 4 5 5 7 10 13 14 12 9 7 8 10 11 16 20 20 18 15 12 11 10 9 5 3 2 1 0 0 0 0 0 0 0 0 0 0 0 1 1 1
4 4 4 5 4 4 5 7 9 10 8 7 5 5 4 6 10 14 16 16 15 14 12 11 9 6 4 2 0 0 0 0 0 0 0 0 0 0 0 0 1 0 0
6 5 5 5 4 4 4 5 7 8 8 8 6 4 3 3 5 7 8 10 12 12 10 9 7 4 2 1 0 0 0 0 0 0 0 0 0 0 0 0 0 0 0
6 6 6 6 6 6 5 6 7 8 8 7 6 6 4 3 4 5 5 6 8 8 6 6 4 3 1 0 0 0 0 0 0 0 0 0 0 0 0 0 0 0 0
6 6 6 6 6 6 6 5 6 6 6 5 6 7 6 5 5 6 6 6 7 6 4 4 3 2 1 0 0 0 0 0 0 0 0 0 0 0 0 0 0 0 0
4 4 4 4 4 4 4 4 4 5 5 4 5 7 7 6 5 6 7 7 8 7 4 3 3 2 2 1 0 0 0 0 0 0 0 0 0 0 0 0 0 0 0

GEFSSE_con_prob3kmehi_114.txt.gz
EHI
10 11 12 16 28 48 66 77 82 84 80 70 59 48 37 29 20 9 2 0 0 0 0 0 0 0 1 2 3 2 1 0 1 0 0 0 1 3 2 1 0 0 0
17 15 16 20 31 48 64 75 82 84 80 71 62 54 45 35 24 12 3 0 0 0 0 0 0 0 1 2 2 1 0 1 1 1 0 0 1 2 2 1 0 0 0
26 20 18 23 33 47 59 69 76 79 76 71 65 60 54 43 30 17 6 1 1 0 0 0 1 1 0 1 1 0 0 1 1 1 1 0 1 1 1 0 0 0 0
34 23 18 24 35 47 56 62 67 69 68 66 62 59 54 46 35 24 12 5 3 1 0 0 1 1 0 0 0 0 0 0 1 1 1 0 0 0 1 1 1 0 0
38 28 23 29 39 50 56 57 57 58 60 61 59 56 51 43 35 28 19 11 6 4 2 2 2 1 0 0 1 0 0 0 0 1 1 0 0 1 2 2 1 0 0
41 34 31 38 46 53 55 51 47 48 52 55 54 51 46 40 33 27 22 15 11 8 6 4 3 2 1 1 1 0 0 0 0 0 0 0 0 2 3 2 1 0 0
46 41 40 46 51 53 50 46 41 40 45 46 43 40 38 33 28 24 21 17 13 9 7 5 4 4 3 3 1 1 0 0 0 0 0 0 1 1 2 2 1 0 0
53 51 50 51 53 51 48 44 40 38 39 37 31 28 27 25 22 19 17 15 12 9 6 5 5 6 6 6 5 3 1 0 0 1 0 1 1 1 1 1 0 0 0
53 56 56 56 57 54 49 44 39 36 35 32 26 22 19 18 16 14 13 13 12 10 7 6 6 7 8 9 8 5 2 0 0 0 0 1 2 2 2 1 0 0 0
47 51 54 55 55 53 48 44 38 32 30 27 23 18 16 14 13 11 11 11 12 10 8 6 7 9 10 10 8 5 2 0 0 0 0 0 1 4 5 3 1 0 0
40 41 43 44 46 46 45 41 35 27 23 21 17 14 13 11 9 8 7 8 9 7 6 5 6 9 10 7 5 3 1 0 1 0 0 0 1 4 6 5 2 1 0
32 31 32 34 37 41 42 38 30 23 17 15 12 8 8 7 5 4 4 5 5 4 3 3 4 6 6 3 2 2 1 0 0 0 0 0 1 4 5 5 3 1 0
27 27 26 28 31 35 36 33 25 17 12 10 6 4 4 4 3 1 2 3 3 3 3 2 3 3 2 1 1 1 0 0 0 0 0 0 2 4 4 4 4 3 1
22 23 21 20 22 24 27 26 19 12 9 7 5 3 4 3 2 1 1 1 1 2 2 2 2 2 1 1 0 0 0 0 0 0 1 1 2 4 4 4 4 4 3
12 14 13 12 11 14 17 17 13 10 8 6 5 4 4 4 3 2 2 1 1 2 2 2 2 2 2 2 1 1 0 0 0 0 1 1 1 2 4 5 4 4 5
4 5 6 6 7 9 11 11 9 8 8 6 5 5 4 4 4 3 2 1 2 3 2 1 1 1 1 2 2 1 0 0 0 0 1 1 0 1 4 6 5 5 5
3 3 4 4 6 8 8 7 6 6 6 5 5 4 4 4 4 3 2 2 3 3 3 2 1 0 0 1 1 1 0 0 0 0 0 0 0 1 5 6 6 6 5
3 2 2 2 3 4 4 3 3 3 3 3 4 4 4 4 3 2 2 2 4 4 3 3 2 1 0 0 0 0 0 0 0 0 0 0 0 2 5 6 5 6 5
1 1 1 1 0 1 1 1 1 2 1 1 2 2 2 3 2 1 2 2 3 3 3 3 3 1 0 0 0 0 0 0 0 0 0 0 0 1 4 4 3 3 3
0 0 0 0 0 0 0 0 1 2 1 0 1 1 1 1 1 1 1 1 1 1 2 3 2 1 0 0 1 0 0 0 0 0 0 0 0 1 2 1 1 0 1
0 0 0 0 0 0 0 0 1 2 1 0 0 0 0 0 0 0 0 0 0 0 0 1 1 1 0 0 0 0 0 0 0 0 0 0 0 0 0 0 0 0 0
0 0 0 0 0 0 0 0 0 1 1 0 0 0 0 0 0 0 0 0 0 0 0 0 0 0 0 0 0 0 0 0 0 0 0 0 0 0 0 0 0 1 1
0 0 0 0 0 0 0 0 0 0 0 0 0 0 0 0 0 0 0 0 0 0 0 0 0 0 1 1 0 0 0 0 0 0 0 0 0 0 0 0 0 0 0
0 0 0 0 0 0 0 0 0 0 0 0 0 0 0 0 0 0 0 0 0 0 0 0 0 0 1 2 1 0 0 0 0 0 0 0 0 0 0 0 0 0 0
0 0 0 0 0 0 0 0 0 0 0 0 0 0 0 0 0 0 0 0 0 0 0 0 0 0 1 2 2 1 1 0 0 0 0 0 0 0 0 0 0 0 0
0 0 0 0 0 0 0 0 0 0 0 0 0 0 0 0 0 0 0 0 0 0 0 0 0 0 0 1 1 2 2 1 0 0 0 0 0 0 0 0 0 0 0

GEFSSE_con_prob3kmehi_120.txt.gz
EHI
5 4 4 6 9 11 16 23 26 23 21 18 13 8 6 4 2 2 2 2 3 3 2 1 0 0 0 0 0 0 0 0 0 0 0 0 0 0 0 0 0 0 0
8 7 7 7 10 14 21 30 33 31 27 23 18 13 9 6 5 4 4 4 3 3 2 1 0 0 0 0 0 0 0 0 0 0 0 0 0 0 0 0 0 0 0
10 9 8 9 12 18 29 40 45 42 38 32 28 21 13 9 7 6 5 5 4 3 1 0 0 0 0 1 0 0 0 0 0 0 0 0 0 0 0 0 0 0 0
9 8 9 13 18 25 36 47 53 53 48 44 37 27 17 13 11 8 5 4 3 3 1 0 0 0 0 0 0 0 0 0 0 0 0 0 0 0 0 0 0 0 0
8 9 14 20 26 34 43 50 56 59 56 51 44 33 23 19 17 12 7 4 4 4 2 1 0 0 0 0 0 0 0 0 0 0 0 0 0 0 0 0 0 0 0
10 12 17 22 29 38 45 49 53 55 54 51 46 39 32 28 24 18 11 7 6 6 4 1 0 0 0 0 0 0 0 0 0 0 0 0 0 0 0 0 0 0 0
13 15 18 21 25 33 40 43 46 49 49 47 44 41 39 35 28 21 15 12 10 9 5 1 0 0 0 0 0 0 0 0 0 0 0 0 0 0 0 0 0 0 0
15 17 18 17 17 24 31 36 40 45 47 45 42 40 40 35 27 21 17 14 11 9 5 1 0 0 0 0 0 0 0 0 0 0 0 0 0 0 0 0 1 0 0
18 19 18 14 12 16 23 30 35 39 42 42 39 35 33 29 22 17 14 12 10 7 4 1 0 0 0 0 0 0 0 0 0 0 0 0 0 0 0 0 0 0 0
21 22 21 17 14 14 18 24 29 32 32 31 29 24 20 18 14 9 8 9 8 6 3 1 1 1 0 0 0 0 0 0 0 0 0 1 1 0 0 0 0 0 0
24 24 25 23 19 17 17 21 23 23 19 16 14 12 8 6 4 4 6 7 6 4 3 3 2 1 0 0 0 0 0 0 0 0 1 2 2 0 0 0 0 0 0
26 25 24 23 20 19 20 21 19 15 11 7 6 5 3 1 0 3 6 5 3 2 3 4 2 1 0 0 0 0 0 0 0 0 2 4 2 0 0 0 0 0 0
26 24 23 22 20 21 24 24 21 17 12 7 5 6 5 3 1 2 3 3 1 2 3 3 1 0 0 0 0 0 0 0 0 0 3 5 3 0 0 0 1 1 1
21 22 23 25 25 26 29 30 27 22 16 11 9 8 7 5 3 1 1 1 1 3 4 4 2 1 0 0 0 0 0 0 0 0 3 6 4 1 0 0 0 1 1
16 19 25 30 33 31 33 33 29 23 18 14 12 10 8 7 4 2 2 2 2 3 6 7 4 2 2 1 0 0 0 0 0 1 2 4 3 1 0 0 0 0 1
15 18 23 30 34 34 33 30 24 19 16 14 12 9 8 6 4 3 3 3 2 3 6 6 4 3 3 2 1 0 0 0 0 1 1 1 1 1 0 1 1 1 1
15 17 19 22 26 30 30 26 19 15 13 14 12 10 9 7 6 5 5 4 4 4 5 6 5 4 3 2 2 1 1 1 1 1 1 1 2 1 1 2 4 4 4
12 15 15 13 14 19 22 21 17 13 13 15 16 14 11 9 8 9 9 8 6 6 8 8 8 7 5 3 3 3 3 3 2 2 2 3 3 3 2 4 6 7 9
10 13 11 7 6 9 13 14 13 12 14 17 18 16 15 12 9 9 11 11 10 11 13 13 14 14 10 5 2 2 3 4 4 3 3 3 4 3 3 5 5 7 9
9 8 6 3 2 3 6 9 10 11 14 17 17 17 17 14 10 8 9 10 10 13 16 17 18 18 12 6 3 1 1 2 4 5 5 4 4 3 2 4 5 5 6
7 5 3 2 1 2 5 7 7 9 11 14 14 13 13 12 10 8 7 7 9 12 15 17 18 15 10 7 6 4 2 2 4 6 6 6 4 3 1 3 4 5 4
5 4 2 2 1 2 4 6 7 8 9 10 10 8 7 8 9 8 8 8 8 9 11 13 13 11 8 9 10 8 3 3 4 4 6 6 4 3 3 4 5 5 5
3 2 1 1 1 2 2 4 6 8 9 8 7 6 5 5 6 7 8 8 6 6 7 9 10 9 7 8 10 9 6 5 4 3 4 4 4 3 4 5 4 4 5
3 2 1 0 1 1 1 2 4 6 6 6 6 6 5 4 4 5 5 5 5 5 6 7 8 8 6 7 8 7 7 6 4 2 2 3 3 4 5 5 4 5 6
4 2 1 0 0 0 0 1 2 2 2 2 3 3 2 2 3 3 3 3 5 6 6 6 6 7 8 8 7 6 6 5 4 4 3 4 4 4 4 5 5 7 7
4 2 1 0 0 0 0 1 1 1 0 0 1 1 1 1 3 3 3 4 5 6 5 5 6 8 10 10 9 7 5 4 5 5 5 5 4 4 4 4 6 7 7

GEFSSE_con_prob3kmehi_126.txt.gz
EHI
50 43 39 30 15 6 3 3 1 0 0 0 0 0 0 0 0 0 0 0 0 0 0 0 0 0 0 0 0 0 0 1 1 2 2 2 2 2 1 1 1 1 0
53 46 41 32 18 7 4 3 2 1 0 0 1 1 1 0 0 0 0 0 0 0 0 0 0 0 0 0 0 0 0 0 0 1 1 1 1 1 0 1 2 1 0
50 43 39 34 21 10 5 3 3 1 0 1 2 2 2 1 1 0 0 0 0 0 0 0 0 0 0 0 0 0 0 0 0 0 0 0 0 0 0 1 2 1 0
42 40 41 39 28 15 6 4 5 3 1 2 3 3 3 3 2 1 0 0 0 0 0 0 0 0 0 0 0 0 0 0 0 1 1 1 1 1 1 0 0 0 0
44 48 53 51 41 25 13 8 6 5 3 2 3 3 4 3 2 1 1 0 0 0 0 0 0 0 0 0 0 0 0 0 1 2 2 2 3 3 2 1 0 0 0
52 55 59 61 53 37 23 15 10 8 5 4 4 5 5 4 2 1 0 0 0 0 0 0 0 0 0 0 0 0 0 2 5 5 3 2 5 5 3 1 0 0 0
55 53 58 64 58 46 33 24 19 16 13 10 9 9 8 6 3 1 0 0 0 0 0 0 0 0 0 0 0 0 0 3 7 6 3 4 6 6 5 2 1 0 0
53 48 50 57 55 46 40 34 30 26 22 20 17 15 13 9 4 2 1 0 0 0 0 0 0 0 0 0 0 0 0 3 5 4 4 7 9 9 8 5 1 0 0
49 42 38 40 40 38 39 39 37 33 29 26 23 19 15 10 6 2 1 0 0 0 0 0 0 0 0 0 0 0 0 1 2 2 4 10 15 13 11 8 3 1 0
48 41 33 29 27 28 33 37 36 33 28 24 20 16 12 9 6 2 1 0 0 0 0 0 0 0 0 0 0 0 0 0 1 2 8 19 22 18 14 11 6 3 2
50 44 35 29 26 24 26 30 30 27 23 18 13 9 6 6 5 4 5 5 3 1 1 0 0 0 0 0 0 0 0 0 0 4 17 31 32 24 17 12 8 5 4
52 46 40 36 30 27 26 26 23 21 19 14 8 5 3 3 5 8 13 12 7 3 2 1 0 0 0 0 1 2 1 0 0 6 25 41 40 29 20 14 10 6 4
52 48 43 39 34 33 33 27 22 22 21 15 10 7 4 4 7 12 17 14 8 4 3 2 1 0 0 0 2 2 1 0 0 7 26 43 41 30 22 16 12 8 6
45 44 43 41 39 42 43 36 30 29 26 21 18 15 10 8 8 14 19 16 8 4 4 4 1 0 0 0 1 1 1 0 0 6 23 39 39 31 24 18 13 9 7
39 41 43 44 44 48 50 44 38 36 32 30 30 27 22 17 15 18 24 21 13 8 6 4 3 2 2 1 1 2 2 2 3 9 21 34 38 35 29 24 18 13 9
41 43 44 44 45 49 49 44 41 39 37 36 36 34 30 26 24 25 27 24 17 13 12 9 7 7 6 3 3 4 4 5 9 14 22 30 34 32 31 29 25 19 15
45 44 41 38 40 44 42 37 36 36 36 37 35 32 29 27 27 27 26 22 18 17 17 15 12 12 10 7 6 6 7 9 14 19 25 29 27 23 24 27 27 24 22
44 41 36 33 35 38 35 31 29 29 31 33 32 28 25 23 24 25 23 20 18 20 20 17 15 15 13 11 9 9 10 13 17 20 24 25 22 18 18 21 23 24 23
40 37 32 30 31 32 32 29 26 25 26 29 29 25 22 20 20 22 21 19 20 23 21 18 17 19 18 15 11 11 13 16 18 17 18 20 19 18 18 18 19 19 19
35 32 27 25 25 25 25 25 25 24 24 25 24 22 19 18 16 17 19 19 19 20 19 17 17 19 19 16 12 10 12 15 18 17 16 17 18 18 17 18 19 17 15
29 26 22 18 16 16 17 20 22 22 21 19 18 17 16 16 14 13 14 16 16 15 14 14 14 15 15 15 13 11 9 11 15 17 17 17 17 15 13 16 19 18 15
22 19 16 12 9 8 11 16 19 20 18 14 13 13 13 14 13 12 12 13 14 12 11 12 12 11 10 12 15 13 8 8 10 12 15 16 14 12 10 12 15 16 15
14 12 10 8 6 6 8 12 14 15 14 12 10 10 10 11 12 11 11 12 13 12 11 11 11 10 9 12 14 13 8 6 6 8 10 11 10 10 9 9 10 11 13
11 9 7 7 6 6 8 10 10 10 10 9 8 7 6 7 8 8 8 10 12 12 11 9 9 10 10 11 11 9 6 5 4 4 5 6 7 9 8 5 5 9 12
12 10 9 8 8 8 10 11 9 7 6 4 3 3 3 3 5 6 6 7 9 10 9 8 8 9 9 8 6 5 4 4 4 3 2 3 5 7 6 4 4 9 13
12 12 11 10 10 9 11 11 8 6 5 3 1 1 2 3 4 4 4 5 7 8 7 7 9 9 9 6 4 3 4 5 4 3 2 3 4 5 6 5 5 10 14

GEFSSE_con_prob3kmehi_132.txt.gz
EHI
5 9 15 18 18 15 12 8 6 7 8 10 15 20 24 26 26 22 15 9 5 3 1 0 0 0 0 0 1 2 3 4 6 4 2 2 3 3 5 4 2 0 0
14 15 18 21 20 17 13 10 8 6 7 9 14 18 20 21 19 14 9 6 4 2 0 0 0 0 0 0 0 1 1 2 3 2 1 2 3 3 4 5 3 1 0
29 23 21 24 23 18 14 11 9 7 6 9 13 16 15 14 10 5 2 2 1 0 0 0 0 0 0 0 0 0 0 0 1 1 0 1 1 3 5 5 3 1 1
40 30 24 26 25 19 13 9 8 7 7 9 11 11 10 8 4 2 1 0 0 0 0 0 0 0 0 0 0 1 1 0 0 0 0 0 1 4 6 6 4 2 2
45 35 29 31 29 22 15 10 9 9 9 9 9 7 5 3 2 2 2 1 0 0 0 0 0 0 0 0 1 2 2 1 0 0 0 0 1 3 5 5 3 2 1
46 38 36 38 35 27 21 16 13 10 9 9 8 6 3 1 1 3 3 1 0 0 0 0 0 0 0 0 1 2 3 2 1 0 0 0 1 4 5 5 3 2 1
44 38 40 45 42 36 28 23 18 12 9 10 9 6 4 3 3 3 3 2 1 0 0 0 0 0 0 0 0 1 2 2 1 0 0 0 2 6 9 7 5 3 3
43 38 40 45 44 41 36 30 22 14 10 12 12 9 6 5 5 4 4 3 1 0 0 0 0 0 0 0 0 1 2 2 0 0 0 0 3 8 13 12 7 4 3
41 37 36 37 38 40 39 34 26 19 16 17 18 13 8 6 5 4 3 1 1 0 0 0 1 1 0 0 0 1 2 2 0 0 0 0 3 10 15 14 9 4 3
35 33 29 29 31 35 36 35 31 25 22 23 22 18 11 5 3 3 2 1 0 1 1 1 3 2 1 0 0 1 1 1 0 0 0 0 4 11 16 16 11 6 2
31 27 24 23 25 28 31 32 30 26 22 22 20 17 11 4 1 1 2 2 2 3 4 4 5 4 2 0 0 0 0 0 0 0 0 2 7 13 18 18 13 8 4
26 23 19 17 19 21 23 24 22 19 16 13 10 9 6 2 0 1 2 4 5 6 6 6 6 4 2 0 0 0 0 0 0 0 2 7 13 19 22 20 15 10 8
21 19 15 13 13 14 15 15 14 12 10 5 3 2 1 0 0 1 2 3 4 5 5 4 3 2 1 0 0 0 0 0 0 0 3 12 19 22 22 21 17 13 10
21 17 11 9 9 10 11 10 8 8 8 4 2 1 1 0 0 2 3 2 3 3 3 1 1 0 0 0 0 0 0 0 0 0 4 13 20 20 19 19 18 14 11
23 19 11 7 7 8 7 6 5 6 6 4 3 3 2 0 0 1 2 1 2 3 3 1 0 0 0 0 0 0 0 0 0 0 3 10 16 16 16 18 18 15 12
22 19 13 8 7 7 5 4 3 3 3 3 4 4 2 0 0 1 1 0 1 2 2 1 0 0 0 0 0 0 0 0 0 0 2 6 11 13 14 17 18 16 14
17 16 13 11 9 7 6 4 4 4 3 3 4 4 2 1 1 2 1 0 0 1 1 1 0 0 0 0 0 0 0 0 0 0 1 4 7 9 11 12 13 13 13
15 15 14 12 11 10 10 9 8 8 7 6 5 5 5 4 3 3 2 1 0 0 0 0 0 0 0 0 0 0 0 0 0 0 1 3 4 4 5 6 5 7 8
15 16 15 14 13 13 13 14 13 11 11 10 8 6 6 5 4 3 2 1 0 0 0 0 0 0 0 0 0 0 0 0 0 0 0 1 1 1 1 1 1 2 3
15 15 15 14 14 13 13 14 12 10 10 10 8 7 5 4 3 3 1 0 0 0 0 0 0 0 0 0 0 0 0 0 0 0 0 0 0 0 0 0 0 0 1
13 13 13 12 10 10 10 10 7 6 5 5 5 5 3 2 2 2 1 0 0 0 0 0 0 0 0 0 0 0 0 0 0 0 0 0 0 0 0 0 0 0 0
11 11 10 8 5 5 6 6 4 3 2 1 2 2 1 0 1 1 1 1 1 0 0 0 0 0 0 0 0 0 0 0 0 0 0 0 0 0 0 0 0 0 0
10 9 8 5 2 1 1 2 2 1 0 0 0 0 0 0 0 0 1 2 2 1 0 0 0 0 0 0 0 0 0 0 0 0 0 0 0 0 0 0 0 0 0
7 7 6 4 1 0 0 0 0 0 0 0 0 0 0 0 0 0 1 2 2 1 0 0 0 0 0 0 0 0 0 0 0 0 0 0 0 0 0 0 0 0 0
6 6 6 4 2 0 0 0 0 0 0 0 0 0 0 0 0 0 0 1 1 0 0 0 0 0 0 0 0 0 0 0 0 0 0 0 0 0 0 0 0 0 0
7 7 6 4 2 1 0 0 0 0 0 0 0 0 0 0 0 0 0 0 0 0 0 0 0 0 0 0 0 0 0 0 0 0 0 0 0 0 0 0 0 0 0

GEFSSE_con_prob3kmehi_138.txt.gz
EHI
1 1 3 7 12 21 34 47 57 66 71 70 64 53 40 29 22 14 5 1 0 0 0 0 0 1 2 3 3 2 1 0 0 0 0 0 0 0 1 2 1 1 2
5 3 4 7 13 21 32 44 54 61 67 69 66 56 43 31 23 15 8 3 0 0 0 0 0 0 1 1 1 1 1 0 0 0 0 0 0 0 1 2 2 2 2
9 7 5 8 15 23 30 40 47 52 58 63 64 56 43 32 24 16 9 4 1 0 0 0 0 0 0 0 0 0 0 0 0 0 0 0 0 0 1 3 3 3 3
11 9 8 12 19 24 28 32 37 41 45 50 54 49 39 30 24 16 9 3 0 0 0 0 0 0 0 0 0 0 0 0 0 0 0 0 0 0 1 3 3 2 2
12 9 11 18 23 25 25 25 27 30 32 36 39 37 32 28 23 17 9 2 0 1 1 1 0 0 0 0 0 0 0 0 0 0 0 0 0 0 1 1 1 1 1
13 11 13 21 26 24 23 21 22 23 24 27 30 29 27 24 22 17 9 2 0 1 2 2 1 0 0 0 0 0 0 0 0 0 0 0 0 1 1 1 0 0 0
16 13 14 19 22 22 21 21 21 21 22 25 27 27 25 22 20 17 10 3 0 1 2 2 1 0 0 0 0 0 0 0 0 0 0 0 0 2 2 1 0 0 0
20 17 15 15 16 19 23 24 24 25 25 26 28 28 24 20 16 14 10 3 0 0 1 1 0 0 0 0 0 0 0 0 0 0 0 0 1 3 4 3 1 0 0
21 21 17 13 13 18 23 24 26 28 29 29 28 25 20 14 11 10 8 4 1 0 0 0 1 1 1 1 1 0 0 0 0 0 0 0 1 3 5 6 4 2 1
20 20 19 16 15 17 18 20 24 27 29 29 25 19 14 9 6 7 7 5 2 0 0 1 2 3 4 4 2 1 0 0 0 0 0 0 0 1 4 6 6 5 4
17 17 18 19 18 16 15 16 19 21 23 22 18 15 11 6 4 5 7 7 4 2 2 2 3 3 3 3 2 2 1 0 0 0 0 0 0 1 3 5 7 8 7
16 15 16 17 16 15 14 13 13 14 14 13 12 11 9 5 3 4 6 8 7 5 4 4 3 2 2 2 1 1 1 0 0 0 0 0 0 1 2 4 7 8 8
16 14 13 13 12 12 12 11 10 9 8 7 8 8 5 3 2 2 4 5 7 7 5 4 4 3 2 2 2 1 1 1 1 1 0 1 1 0 1 4 7 8 7
16 13 9 8 8 10 10 10 10 9 6 5 6 6 4 2 2 1 1 2 3 4 3 2 4 3 2 2 2 1 1 2 2 2 2 3 2 1 1 3 6 5 5
14 10 6 4 4 6 7 7 8 7 5 4 5 5 3 2 2 2 1 0 1 1 1 1 2 2 1 1 1 0 1 2 3 3 3 4 5 3 2 3 3 3 3
10 8 5 3 2 3 4 4 4 4 3 3 4 4 2 2 2 2 1 0 0 0 0 0 1 1 1 0 0 0 1 1 2 2 2 4 6 6 5 5 3 2 2
6 6 4 2 2 1 1 2 2 1 1 1 2 1 1 0 1 1 0 0 0 0 0 0 0 1 0 0 0 0 0 0 1 2 2 3 5 6 5 4 3 2 3
4 3 2 1 1 1 0 1 1 0 0 0 0 0 0 0 0 0 0 0 0 0 0 0 0 1 0 0 0 1 0 0 0 1 1 1 2 2 3 2 2 1 2
2 2 1 1 0 0 0 0 0 0 0 0 0 0 0 0 0 0 0 0 0 0 0 0 0 0 0 0 0 0 0 0 0 1 0 0 0 0 1 1 1 1 1
1 1 1 0 0 0 0 1 1 1 1 0 0 0 0 0 0 0 1 1 1 0 0 0 0 0 0 0 0 0 0 0 0 0 0 0 0 0 0 0 1 1 1
1 1 1 0 0 0 1 2 2 2 1 0 0 0 0 0 0 0 1 1 1 0 0 0 0 0 0 0 0 0 0 0 0 0 0 0 0 0 0 0 1 1 0
2 1 0 0 0 0 1 2 2 1 0 0 0 0 0 0 0 0 0 0 0 0 0 0 0 0 0 0 0 0 0 0 0 0 0 0 0 0 0 0 0 0 0
1 1 0 0 0 0 1 1 1 0 0 0 0 0 0 0 0 0 0 0 0 0 0 0 0 0 0 0 0 0 0 0 0 0 0 0 0 0 0 0 0 0 0
0 0 0 0 0 0 0 0 0 0 0 0 0 0 0 0 0 0 0 0 0 0 0 0 0 0 0 0 0 0 0 0 0 0 0 0 0 0 0 0 0 0 0
0 0 0 0 0 0 0 0 0 0 0 0 0 0 0 0 0 0 0 0 0 0 0 0 0 0 0 0 0 0 0 0 0 0 0 0 0 0 0 0 0 0 0
0 0 0 0 0 0 0 0 0 0 0 0 0 0 0 0 0 0 0 0 0 0 0 0 0 0 0 0 0 0 0 0 0 0 0 0 0 0 0 0 0 0 0

GEFSSE_con_prob3kmehi_144.txt.gz
EHI
6 6 5 4 3 6 17 36 50 53 47 39 30 24 17 10 4 1 0 0 0 0 0 0 1 2 1 0 0 0 0 0 0 0 0 0 0 0 0 0 0 0 0
7 7 6 5 4 7 20 38 51 53 48 40 32 25 19 12 6 2 0 0 0 0 0 0 1 2 2 1 0 0 1 1 0 0 0 0 0 0 0 0 0 0 0
9 7 7 6 5 7 20 40 51 51 46 40 34 27 20 14 8 4 1 0 0 0 0 0 1 2 2 1 0 1 2 1 0 0 0 0 0 0 0 0 0 0 0
9 8 7 8 6 8 19 36 48 49 45 41 35 27 20 14 9 5 2 0 0 0 1 1 1 1 1 2 1 2 2 1 0 0 0 0 1 1 1 1 1 0 0
9 8 9 9 8 10 17 29 40 44 44 40 33 25 19 15 11 7 3 1 0 1 2 2 2 1 1 2 2 2 1 0 0 0 0 0 1 2 2 2 1 0 0
9 9 9 9 9 10 15 23 30 34 36 35 28 20 17 15 12 9 5 2 1 2 3 3 3 2 2 3 3 2 1 0 0 0 0 0 2 4 3 1 1 0 0
10 10 10 9 8 8 12 18 23 26 27 27 24 18 15 14 11 9 6 4 3 4 4 3 3 2 2 2 2 2 1 0 0 0 0 1 4 6 3 0 0 0 0
9 9 9 8 7 8 11 17 21 23 23 23 22 17 14 11 9 7 6 5 4 5 5 4 3 2 1 1 1 1 1 1 0 0 0 2 6 6 3 0 0 0 0
7 8 8 7 8 10 11 16 20 21 22 23 21 16 12 9 6 5 5 5 5 5 4 3 2 1 0 0 0 0 0 0 0 0 0 3 6 5 2 1 0 0 0
8 9 8 8 8 9 10 14 18 20 21 22 19 14 10 7 4 3 5 7 6 4 3 2 1 1 0 0 0 0 0 0 0 0 0 3 6 5 2 1 0 0 0
12 11 10 9 7 6 8 13 16 17 17 17 14 11 7 4 3 4 9 12 8 2 1 1 1 0 0 0 1 1 1 0 0 0 2 6 6 4 2 1 0 0 0
14 13 12 11 8 6 8 13 15 15 13 12 11 11 8 6 5 8 15 15 9 3 1 1 1 0 0 1 2 2 1 1 1 1 5 10 8 4 2 1 1 1 1
13 13 12 12 12 11 11 13 15 15 13 11 12 13 12 10 8 11 14 14 10 7 6 5 3 1 1 1 2 2 2 2 3 4 8 11 9 5 3 1 1 1 1
14 13 13 13 14 16 16 14 13 13 12 11 12 12 12 11 10 11 13 13 12 12 12 11 7 4 3 2 1 2 3 4 5 6 9 8 6 5 5 3 1 2 2
16 15 14 15 17 18 19 16 14 13 11 9 9 9 8 8 9 11 14 15 14 15 16 15 12 10 8 7 4 3 3 4 4 6 7 6 5 4 5 4 3 3 4
16 15 15 18 20 20 19 19 17 14 9 6 5 4 3 4 5 8 12 13 12 14 16 17 15 13 12 11 9 6 5 5 5 5 6 7 6 5 5 6 7 7 5
17 17 17 18 20 19 17 17 16 10 5 3 2 1 0 1 2 5 8 9 9 10 14 18 18 17 15 14 12 10 9 10 9 7 7 8 7 5 6 8 10 8 5
21 21 20 18 18 18 16 16 14 10 6 4 3 2 0 0 1 3 5 6 7 9 12 16 19 20 18 15 13 11 12 14 12 9 8 8 7 5 5 8 9 7 5
25 25 23 21 20 19 18 17 17 16 13 9 6 4 3 2 3 4 6 7 8 9 10 11 17 20 18 14 11 9 10 12 12 9 7 7 6 5 5 7 8 6 5
27 26 25 25 25 24 21 20 19 18 15 12 9 8 7 7 6 6 8 10 9 8 7 7 10 12 12 11 7 5 5 7 8 8 6 6 6 5 4 7 9 7 5
26 26 26 27 29 27 22 19 18 16 14 12 11 11 10 9 9 8 9 11 10 8 6 4 4 5 6 7 7 5 4 4 5 7 6 4 4 3 3 5 7 7 5
23 23 24 26 27 24 20 16 14 12 12 12 12 13 12 10 8 8 9 9 9 7 5 3 2 3 4 5 7 7 4 4 4 4 3 2 2 3 4 4 5 6 5
21 22 23 24 22 18 15 12 10 10 11 11 11 11 10 8 6 6 6 6 6 4 3 2 1 2 2 3 6 6 5 4 3 2 1 1 1 3 4 4 4 5 5
20 23 25 22 17 13 11 10 9 9 10 10 9 7 6 4 3 3 4 4 3 2 1 1 0 0 1 1 3 3 3 4 2 1 0 1 2 3 4 4 4 4 4
19 23 25 20 12 10 10 8 7 8 8 7 5 4 3 2 2 2 2 2 2 1 0 0 0 0 0 0 1 1 1 2 2 0 0 1 2 3 3 3 4 5 4
18 22 22 16 10 9 9 7 6 7 6 5 4 3 3 2 1 1 1 1 1 0 0 0 0 0 0 0 0 0 0 1 1 1 0 1 2 3 3 4 5 5 4

GEFSSE_con_prob3kmehi_150.txt.gz
EHI
20 19 20 16 7 3 1 1 1 1 0 0 0 0 0 1 3 5 5 4 2 1 0 0 0 0 0 0 0 0 0 0 0 0 0 1 2 2 1 0 0 0 0
25 22 22 18 9 4 2 1 0 0 0 0 0 0 0 0 2 3 4 3 2 1 0 0 0 0 0 0 0 0 0 0 0 0 0 0 1 1 0 0 1 1 0
24 21 20 19 13 7 3 1 0 0 0 0 0 0 0 0 1 2 2 2 1 0 0 0 0 0 0 0 0 0 0 0 0 0 0 0 0 0 0 1 2 2 1
17 17 19 20 16 10 5 2 1 0 1 2 2 1 0 0 0 1 1 1 0 0 0 0 0 0 0 0 0 0 0 0 1 2 2 1 0 1 1 2 3 2 1
17 20 23 23 20 14 9 4 1 0 1 3 3 2 0 0 0 0 0 0 0 0 0 0 0 0 0 0 0 0 0 0 2 4 4 2 1 2 3 3 3 2 1
25 25 25 27 24 18 11 5 2 1 3 4 5 3 2 1 0 0 0 0 0 0 0 0 0 0 0 0 0 0 0 1 3 4 4 4 4 5 4 4 3 3 2
31 27 25 27 25 19 11 6 4 4 5 5 6 5 4 3 1 1 1 1 0 0 0 0 0 0 0 0 0 0 0 1 3 4 5 10 13 9 5 3 2 2 2
32 27 23 22 21 16 11 8 7 7 6 6 6 5 5 4 3 2 2 2 1 0 0 0 0 0 0 0 0 0 0 0 2 3 7 17 23 17 7 2 2 1 1
29 23 17 14 12 11 9 8 8 8 7 7 6 4 3 3 3 3 3 2 1 0 0 0 0 0 0 0 0 0 0 0 0 1 6 20 30 25 11 3 1 0 0
25 20 13 9 8 7 5 6 8 8 8 7 6 4 3 1 1 2 4 5 3 1 1 1 1 1 1 1 0 0 0 0 0 1 9 26 38 32 17 7 2 0 0
27 21 13 10 9 6 5 6 8 8 7 6 5 5 4 2 2 4 11 16 13 6 5 5 4 3 2 1 1 1 1 0 0 3 17 40 50 40 25 12 4 1 0
31 25 18 15 15 13 11 12 11 9 9 7 7 10 8 5 6 11 23 32 26 15 8 8 8 6 4 2 3 5 4 1 1 5 25 51 58 47 33 19 9 3 1
35 30 25 25 26 26 25 21 17 16 16 14 16 20 17 12 13 20 32 38 32 21 13 11 11 9 5 3 4 7 5 2 2 8 27 50 59 51 37 23 12 5 3
40 37 36 39 44 45 40 32 26 25 25 26 29 31 28 24 23 28 36 38 32 26 22 20 18 13 9 7 5 5 4 4 6 11 26 44 53 48 37 25 15 8 6
45 47 50 55 59 59 53 43 35 32 34 37 39 38 36 34 32 34 39 38 33 29 29 29 26 22 19 14 8 5 5 7 11 15 24 36 43 40 32 25 19 12 7
52 55 61 65 65 62 57 47 38 35 39 42 43 41 37 37 37 35 36 35 29 25 25 27 28 29 28 22 13 9 10 11 14 18 23 28 32 31 28 26 22 16 10
59 61 62 62 59 58 54 45 36 33 36 40 42 39 35 34 34 30 28 27 22 19 19 22 26 31 30 25 18 14 15 16 15 15 19 22 23 22 24 23 21 18 15
62 62 59 53 51 51 47 42 37 34 34 36 38 37 32 29 28 25 21 19 19 18 20 22 24 29 28 24 20 17 18 19 15 11 12 16 19 20 21 20 18 18 17
62 61 56 51 49 47 43 41 38 35 34 34 35 35 30 26 24 21 18 16 17 20 23 22 22 24 23 20 17 14 15 18 16 11 10 14 18 22 21 19 17 16 15
59 60 57 53 51 48 44 41 37 33 31 32 33 30 25 23 22 20 17 16 17 21 23 21 20 18 16 12 8 7 9 12 14 13 12 14 17 18 18 18 18 15 13
58 57 56 53 50 48 45 41 38 35 32 31 30 25 22 21 20 17 15 16 18 20 21 18 15 13 10 6 2 1 2 5 7 9 10 12 13 13 13 16 18 18 15
54 52 51 50 48 45 44 43 41 38 34 31 29 25 21 18 15 13 13 14 14 15 15 13 10 8 6 3 1 0 0 1 2 4 7 8 9 10 11 13 16 18 17
49 47 46 47 46 43 41 39 37 34 30 28 27 25 19 14 10 9 9 9 8 8 9 9 7 6 4 2 1 0 0 0 0 2 4 4 5 7 8 9 11 14 15
46 43 43 46 46 44 41 36 31 27 25 24 23 21 16 12 7 5 5 5 4 4 4 5 5 4 3 1 0 0 0 0 0 0 1 1 2 3 5 6 7 8 8
39 37 38 42 44 43 41 36 31 26 24 21 18 16 14 10 5 2 2 3 3 3 2 3 3 2 1 1 0 0 0 0 0 0 0 0 1 1 3 4 5 5 5
34 32 32 35 38 38 38 37 33 28 23 19 15 13 12 9 4 1 1 3 3 3 2 2 2 1 1 0 0 0 0 0 0 0 0 0 0 0 2 4 4 4 5

GEFSSE_con_prob3kmehi_156.txt.gz
EHI
5 11 21 28 24 16 10 7 7 7 8 8 9 12 14 16 17 18 19 16 11 6 4 2 1 0 0 0 0 0 0 0 0 2 7 8 6 5 6 6 3 1 0
13 17 28 32 28 20 13 9 7 7 8 8 8 9 11 12 14 15 16 14 9 5 3 2 1 0 0 0 0 0 0 0 0 1 3 4 4 4 5 4 2 1 0
23 24 32 38 34 26 18 13 10 9 9 8 8 9 10 10 10 10 10 9 6 3 2 1 0 0 0 0 0 0 0 0 0 0 1 1 1 3 5 5 4 2 1
27 26 33 43 43 35 25 18 13 11 10 9 8 9 10 10 8 6 5 5 4 2 1 0 0 0 0 0 0 0 0 0 0 0 0 0 1 3 7 9 7 3 1
26 27 35 47 50 42 31 22 15 13 11 9 6 6 7 7 6 5 3 3 2 1 0 0 0 0 0 0 0 0 0 0 0 0 0 0 0 3 8 11 10 5 3
28 29 38 49 51 44 34 25 18 14 12 8 4 3 3 4 4 4 3 2 2 1 0 0 0 0 0 0 0 0 0 0 0 0 0 0 1 3 9 13 12 9 6
33 33 38 45 47 43 36 28 21 15 12 8 4 1 1 1 2 2 2 2 2 1 0 0 0 0 0 0 0 0 0 0 1 1 1 0 1 4 9 13 15 12 9
32 32 34 38 40 40 37 30 22 17 13 7 3 1 0 0 0 1 1 2 1 0 0 0 0 0 0 0 1 1 1 0 1 1 1 0 2 5 9 12 15 15 12
26 27 28 29 32 35 34 29 24 20 16 10 3 1 0 0 0 0 0 0 0 0 0 0 0 0 0 0 1 2 2 1 0 1 1 1 3 7 9 12 15 15 13
21 21 21 22 24 27 28 26 25 24 21 14 6 2 1 0 0 0 0 0 0 1 1 1 1 1 1 0 1 2 2 1 0 0 0 2 6 9 10 12 14 12 9
16 14 14 15 16 19 22 23 22 22 20 14 9 6 5 3 1 0 0 1 1 2 3 3 3 2 2 1 2 2 2 1 0 0 1 4 9 12 12 13 12 8 5
14 11 10 11 12 13 16 18 17 15 14 11 10 9 8 5 3 1 0 1 2 2 3 4 4 2 2 2 2 2 2 1 0 1 3 8 13 16 17 15 11 6 4
17 13 11 11 10 9 11 13 13 10 9 9 8 8 8 6 3 1 0 1 1 1 1 2 1 1 1 3 3 2 1 0 0 1 4 8 13 18 20 17 12 7 5
23 18 14 12 9 7 9 12 12 10 9 7 5 5 6 5 2 1 0 0 0 0 1 0 0 0 1 1 1 1 0 0 0 0 2 6 11 17 20 17 13 9 7
27 24 20 17 12 10 12 13 13 10 7 5 4 3 4 3 2 0 0 0 0 0 0 0 0 1 0 0 0 0 0 0 0 0 1 4 9 13 17 17 14 10 8
33 30 28 25 20 17 16 15 12 9 7 5 4 3 3 3 2 0 0 0 0 0 0 0 0 0 0 0 0 0 0 0 0 0 0 2 6 9 13 15 15 13 11
36 35 34 32 26 22 19 15 11 9 8 7 5 5 4 4 2 0 0 0 0 0 0 0 0 0 0 0 0 0 0 0 0 0 0 1 2 4 7 11 13 12 12
33 33 34 32 27 23 19 15 11 10 10 9 7 6 6 5 2 1 0 0 0 0 0 0 0 0 0 0 1 0 0 0 0 0 0 0 0 1 2 4 6 7 6
30 29 28 28 25 22 19 16 13 10 10 9 8 7 6 5 3 1 0 1 1 1 0 0 0 0 0 0 0 0 0 0 0 0 0 0 0 0 0 0 1 2 1
27 26 24 23 22 19 17 15 13 10 8 8 8 7 7 6 4 2 0 1 2 1 0 0 0 0 0 0 0 0 0 0 0 0 0 0 0 0 0 0 0 0 0
23 24 22 20 18 15 14 13 12 9 7 7 9 10 9 7 4 2 1 1 1 1 0 0 0 0 0 0 0 0 0 0 0 0 0 0 0 0 0 0 0 0 0
23 23 21 18 15 13 11 11 11 9 7 7 9 9 8 6 4 2 1 1 0 0 0 0 0 0 0 0 0 0 0 0 0 0 0 0 0 0 0 0 0 1 1
23 23 21 17 14 12 10 9 9 8 7 7 7 6 5 4 2 1 1 0 0 0 0 0 0 0 0 0 0 0 0 0 0 0 0 0 0 0 0 0 0 0 0
23 22 21 17 14 12 9 8 7 7 6 6 5 4 3 2 1 0 0 0 0 0 0 0 0 0 0 0 0 0 0 0 0 0 0 0 0 0 0 0 0 0 0
23 22 21 19 16 12 8 6 6 6 5 4 4 3 2 1 1 0 0 0 0 0 0 0 0 0 0 0 0 0 0 0 0 0 0 0 0 0 0 0 0 0 0
23 23 21 21 18 12 7 5 5 5 5 4 3 3 1 1 1 0 0 0 0 0 0 0 0 0 0 0 0 0 0 0 0 0 0 0 0 0 0 0 0 0 0

GEFSSE_con_prob3kmehi_162.txt.gz
EHI
2 8 15 18 19 21 26 33 38 40 45 50 51 50 47 45 42 35 22 11 6 5 4 3 1 0 0 0 1 2 2 1 1 1 0 0 1 3 3 2 1 1 2
5 11 19 23 23 25 29 33 38 40 42 45 47 47 45 43 40 34 23 12 6 4 4 3 1 0 0 0 0 1 1 0 0 0 0 0 1 2 3 2 1 1 2
16 18 23 27 29 31 33 36 38 39 37 37 39 40 38 37 34 30 22 13 7 5 4 3 1 0 0 1 1 0 0 0 0 0 0 0 1 1 1 2 2 2 2
27 25 25 31 35 37 39 41 40 38 35 32 32 32 32 30 29 26 21 15 10 7 5 3 1 0 0 1 2 1 0 0 0 0 0 0 0 0 1 2 3 3 3
30 26 29 37 42 43 46 46 43 38 33 30 29 30 30 29 26 24 20 16 11 7 4 2 1 1 1 1 2 1 0 0 0 0 0 0 0 1 2 3 4 4 4
27 24 31 44 49 48 48 48 44 38 34 31 30 31 30 28 23 20 17 13 9 5 3 2 2 3 3 1 1 1 0 0 0 0 0 0 0 1 3 4 4 4 4
27 25 33 47 53 52 50 46 42 38 35 33 31 30 28 24 20 16 11 8 5 3 2 1 2 4 4 3 1 0 0 0 0 0 0 1 1 2 3 4 3 4 5
30 31 36 43 50 53 50 45 39 35 33 31 29 26 23 18 15 12 8 5 3 2 1 0 1 2 4 3 1 0 0 0 0 0 1 2 2 3 4 4 4 5 6
29 31 33 36 43 47 45 40 35 31 27 25 23 21 17 13 11 9 7 5 3 1 0 0 0 1 2 2 1 1 0 0 0 0 1 2 3 4 5 4 5 6 7
25 26 26 28 33 36 35 32 29 27 23 21 20 19 15 11 9 8 8 6 3 1 0 0 0 0 1 1 1 0 0 0 0 0 1 2 2 4 5 5 5 7 8
21 19 20 23 26 28 27 24 24 24 21 19 19 18 13 9 8 8 7 5 4 2 1 0 0 0 0 1 1 1 0 0 0 0 0 1 2 4 5 4 5 7 7
17 16 16 18 21 22 21 17 18 19 19 17 17 16 13 8 7 6 6 5 4 2 1 1 1 1 2 3 4 3 1 1 0 0 0 1 3 5 4 4 6 6 6
12 13 13 13 15 16 15 13 14 16 17 15 13 13 13 10 7 6 5 4 2 1 1 1 2 2 3 5 5 4 3 2 1 0 0 2 3 4 4 3 5 6 5
7 8 9 10 11 11 10 10 12 14 15 13 10 10 12 10 7 6 5 3 2 0 0 1 2 2 2 2 2 2 2 2 1 0 0 1 2 3 3 2 4 5 4
4 3 4 7 8 8 8 8 10 12 11 10 8 8 8 8 6 6 5 3 1 0 0 0 1 1 1 0 0 0 1 1 0 0 0 0 1 3 3 3 3 4 4
3 1 1 2 4 5 6 7 8 8 8 7 7 6 5 5 6 5 3 1 0 0 0 0 0 0 1 0 0 0 0 0 0 0 0 0 1 3 4 3 3 4 5
2 2 1 0 1 3 4 4 6 6 6 6 6 6 4 4 5 4 2 1 0 0 0 0 0 0 0 0 0 0 0 0 0 0 0 0 1 2 2 1 2 4 6
4 3 2 1 1 2 3 4 5 6 6 6 6 6 4 3 4 3 2 0 0 0 0 0 0 0 0 0 0 0 0 0 0 0 0 0 0 0 0 0 0 2 4
6 5 5 4 4 4 4 5 5 5 6 6 6 6 4 3 3 3 2 1 0 0 0 0 1 0 0 0 0 0 0 0 0 0 0 0 0 0 0 0 0 1 1
8 8 7 7 6 6 5 5 5 4 4 5 5 5 4 3 3 4 3 2 0 0 0 0 0 0 0 0 0 0 0 0 0 0 0 0 0 0 0 0 0 1 1
12 12 10 9 7 7 6 5 4 3 2 2 3 4 3 3 3 3 3 2 1 0 0 0 0 0 0 0 0 0 0 0 0 0 0 0 0 0 0 0 0 0 0
17 15 13 11 9 7 6 4 3 2 1 0 1 2 2 3 3 3 3 2 1 0 0 0 0 0 0 0 0 0 0 0 0 0 0 0 0 0 0 0 0 0 0
18 17 15 13 11 9 7 4 2 1 0 0 0 1 1 1 2 2 2 2 1 0 0 0 0 0 0 0 0 0 0 0 0 0 0 0 0 0 0 0 0 0 0
18 17 16 14 13 10 8 5 3 1 0 0 0 0 0 0 1 1 1 1 0 0 0 0 0 0 0 0 0 0 0 0 0 0 0 0 0 0 0 0 0 0 0
16 16 14 13 12 10 7 5 2 1 0 0 0 0 0 0 0 0 0 0 0 0 0 0 0 0 0 0 0 0 0 0 0 0 0 0 0 0 0 0 0 0 0
13 13 12 11 11 9 6 4 1 0 0 0 0 0 0 0 0 0 0 0 0 0 0 0 0 0 0 0 0 0 0 0 0 0 0 0 0 0 0 0 0 0 0

GEFSSE_con_prob3kmehi_168.txt.gz
EHI
4 7 8 6 2 3 9 19 30 40 46 47 44 37 30 22 15 12 9 5 2 0 0 0 0 0 0 0 1 1 1 2 3 3 3 2 1 0 0 0 0 2 5
9 11 11 7 5 6 12 21 31 40 45 46 43 41 37 30 22 17 12 7 3 1 0 0 0 0 0 1 2 2 2 1 2 3 2 1 0 0 0 0 0 1 3
12 14 12 10 8 9 14 23 31 38 43 44 44 44 43 38 30 22 16 11 7 3 1 0 0 0 0 1 2 2 1 0 1 2 1 0 0 0 0 0 0 0 1
11 13 16 15 12 10 15 23 29 34 38 42 44 45 44 40 33 24 17 14 12 7 2 0 0 0 0 0 1 1 0 0 0 0 0 0 0 0 0 0 0 0 0
8 14 22 21 15 12 16 23 26 28 33 38 41 42 42 38 32 23 17 14 13 8 3 1 1 0 0 0 0 0 0 0 0 0 0 0 1 1 1 0 0 0 0
8 16 26 26 19 15 17 21 23 25 29 34 37 37 35 32 30 24 16 12 11 7 2 1 2 1 0 0 0 0 0 0 0 0 0 0 2 3 2 0 0 0 0
11 17 27 28 22 19 18 19 21 24 28 31 31 30 28 27 26 21 14 9 8 6 3 1 1 1 0 0 0 0 0 0 0 0 0 0 2 5 2 0 1 0 0
15 19 25 26 22 21 19 19 22 25 26 25 23 22 21 20 19 15 11 8 7 6 4 1 1 0 0 1 0 0 0 0 0 0 0 1 4 6 3 0 1 1 0
15 17 19 19 20 20 20 20 21 22 22 19 16 14 13 12 10 9 8 7 7 6 5 3 1 1 1 1 0 0 1 1 1 0 0 3 7 6 1 0 0 1 1
17 16 15 15 17 19 18 18 18 18 16 14 11 9 7 5 4 4 5 6 5 4 4 3 3 2 1 0 0 0 1 2 2 2 2 6 9 5 1 0 0 1 1
26 23 19 18 17 16 15 16 17 16 13 11 10 8 5 4 4 3 4 7 6 4 3 3 3 2 1 0 0 1 1 2 3 3 5 9 9 4 1 1 0 1 1
32 28 24 22 19 15 14 16 16 14 14 13 10 9 8 7 5 4 7 10 8 4 3 3 2 1 1 1 1 1 1 1 3 3 7 12 9 2 1 2 2 2 1
29 26 23 22 20 16 16 17 15 15 16 17 14 14 15 13 8 7 10 12 9 7 6 5 3 2 1 2 2 2 1 1 2 2 8 14 8 1 1 2 4 4 4
27 25 22 21 19 17 16 15 15 16 18 20 21 22 22 18 11 9 12 13 11 11 11 9 6 4 2 2 1 1 1 1 1 2 8 13 9 2 1 3 6 6 6
28 26 24 22 22 22 21 18 16 15 15 19 23 24 22 19 13 11 13 13 9 9 11 10 8 6 6 4 2 1 0 0 1 2 6 10 8 4 2 3 6 7 7
28 28 26 25 26 28 27 23 19 14 12 14 18 18 16 15 14 13 11 8 6 6 7 6 5 7 8 9 6 2 0 0 0 1 3 5 5 3 2 3 5 6 6
27 27 26 25 26 29 27 23 18 13 11 12 14 13 11 12 13 11 8 6 6 6 7 6 4 6 9 10 8 4 1 1 0 0 1 2 1 1 2 4 5 5 5
24 26 25 21 23 26 25 21 17 14 14 16 16 13 9 8 9 8 8 8 9 11 11 9 7 8 10 10 8 5 3 1 0 0 0 0 0 1 3 5 4 4 4
20 23 24 22 23 26 28 27 25 23 21 20 19 16 12 9 8 8 9 10 13 16 15 13 11 12 12 9 5 3 2 1 0 0 0 0 0 1 3 4 3 2 2
19 22 24 26 27 28 31 34 35 32 26 21 19 17 15 13 12 12 13 13 17 19 18 15 14 14 14 10 4 2 1 0 0 0 0 0 0 1 2 3 3 2 1
22 23 25 26 28 29 32 35 36 31 23 18 17 16 15 14 15 14 14 14 17 19 17 13 11 11 12 11 6 2 0 0 0 0 0 0 0 0 1 2 3 3 2
27 27 27 27 28 29 31 32 31 26 19 15 15 15 12 10 10 9 10 11 13 14 12 9 6 6 8 10 7 3 1 0 0 0 0 0 0 0 0 0 1 1 2
32 32 31 31 31 31 31 29 26 23 19 15 14 13 9 5 4 5 6 8 9 9 7 6 4 4 6 7 7 4 2 0 0 0 0 0 0 0 0 0 0 0 1
32 32 33 34 34 32 29 26 25 24 21 17 14 11 7 4 3 3 5 6 7 6 5 3 3 4 5 6 6 4 1 0 0 0 0 0 0 0 1 0 0 0 1
28 28 29 31 32 30 28 26 24 24 22 16 12 9 7 5 4 3 3 4 5 5 4 3 3 4 5 5 4 3 1 0 0 0 0 0 0 0 0 0 0 0 1
27 24 25 28 29 28 26 25 24 24 21 15 10 8 7 6 4 2 2 3 4 4 4 3 3 4 5 5 4 2 1 0 0 0 0 0 0 0 0 0 0 0 0

GEFSSE_con_prob3kmehi_174.txt.gz
EHI
40 42 45 37 22 12 7 6 4 3 3 3 3 3 3 3 3 3 3 3 3 3 3 3 3 3 3 3 3 3 3 4 6 7 7 8 10 14 13 10 7 11 16
43 44 45 38 23 13 7 5 4 3 3 3 3 4 4 4 3 3 3 3 3 3 3 3 3 3 3 3 3 3 3 4 5 6 5 6 8 11 12 11 10 12 14
43 42 42 39 27 14 7 4 3 3 3 4 4 5 5 5 4 3 3 3 3 3 3 3 3 3 3 3 3 3 3 3 4 4 4 4 6 9 11 12 12 11 9
38 38 41 41 31 18 9 5 3 3 4 5 4 4 5 6 5 4 4 3 3 3 4 3 3 4 3 3 3 3 3 3 3 3 3 3 7 12 14 14 13 9 6
36 39 45 45 36 24 13 7 5 5 5 6 6 5 5 6 6 6 5 4 4 4 5 4 4 5 4 3 3 3 3 3 3 3 3 4 12 20 19 16 13 9 7
40 44 48 48 41 30 19 11 8 6 7 9 9 8 8 9 10 8 6 6 6 6 6 6 6 5 4 3 3 3 3 3 3 3 4 6 16 26 24 16 13 11 11
46 47 50 52 48 34 21 14 10 8 9 11 13 13 14 15 15 11 8 7 7 7 6 6 6 5 4 3 3 3 3 3 3 4 6 11 23 32 26 16 14 13 12
50 51 51 55 52 37 24 17 14 12 10 10 13 15 15 16 16 13 10 10 10 9 7 5 5 5 4 3 3 3 3 3 3 4 6 16 35 41 30 19 17 15 12
52 50 48 49 48 38 27 22 20 18 13 10 11 13 13 14 13 12 13 13 13 13 10 6 5 6 5 5 4 4 3 3 3 3 5 20 44 50 37 26 23 19 15
52 48 42 41 39 32 28 27 25 21 16 13 12 13 12 11 11 11 14 15 16 16 14 11 8 7 6 7 6 4 3 3 3 3 6 22 45 53 44 35 28 21 16
56 50 42 40 37 30 28 31 27 19 15 13 13 13 13 10 9 10 13 18 20 19 18 16 12 7 4 6 6 4 3 3 3 3 10 28 47 53 47 40 31 20 14
61 55 47 45 42 35 33 34 27 19 16 15 14 14 15 14 12 11 15 22 24 21 19 18 14 7 4 4 5 5 4 2 2 4 14 32 46 50 46 39 30 19 13
63 58 52 50 48 43 41 39 30 23 22 21 21 23 22 21 18 17 22 27 24 19 18 17 13 9 6 6 5 5 4 2 2 4 16 32 41 42 40 34 27 20 18
62 60 56 54 52 51 51 45 35 27 26 28 33 35 32 28 25 24 27 28 23 19 18 15 10 9 8 6 3 2 2 2 2 6 16 28 33 33 31 27 23 20 20
63 63 60 56 55 58 58 50 39 32 29 33 42 43 38 33 30 28 29 27 22 19 17 12 8 7 8 6 4 2 2 3 4 7 14 22 26 27 26 23 20 17 15
66 66 64 59 58 61 60 52 43 37 35 37 45 46 40 35 32 31 31 29 23 17 14 10 8 7 8 9 7 7 6 6 7 9 11 16 19 20 20 20 19 17 14
68 69 66 60 59 61 59 53 45 41 39 41 45 43 38 35 34 32 31 30 25 19 15 11 8 8 8 10 10 10 10 9 8 9 11 14 14 12 13 18 21 22 22
67 69 66 58 57 59 57 52 47 44 43 43 44 41 37 36 35 33 30 29 25 21 17 12 9 9 9 9 9 9 9 10 8 8 10 12 11 8 10 15 19 22 23
65 67 64 58 54 54 55 52 49 48 45 42 41 40 38 36 34 31 29 25 20 18 16 12 10 10 10 10 7 6 7 9 8 6 6 9 10 9 10 12 13 13 14
63 63 61 57 52 51 53 53 51 50 46 41 38 39 39 35 30 26 24 21 17 14 13 12 10 10 10 9 6 4 4 6 6 6 5 7 8 7 6 6 5 5 5
56 56 55 53 51 51 51 52 51 50 46 40 37 38 37 33 27 22 20 19 16 13 12 11 9 9 10 9 6 4 2 3 4 5 6 6 5 3 1 1 2 2 3
50 50 50 49 48 47 46 46 47 46 43 38 36 36 34 30 25 20 20 20 17 13 11 9 8 8 8 8 7 5 2 2 4 5 5 4 2 0 0 0 1 1 2
47 48 48 47 45 42 41 39 39 39 38 36 34 32 29 25 22 20 19 18 16 12 9 8 7 6 5 5 5 5 3 3 5 5 4 2 0 0 0 0 0 1 2
41 44 46 45 41 39 39 36 35 34 34 34 32 28 24 21 20 19 16 14 13 10 8 6 5 4 3 2 2 3 3 3 4 4 3 1 0 0 0 0 0 1 2
32 36 40 43 41 38 37 36 35 33 31 31 29 25 22 20 19 16 14 13 11 9 7 5 4 3 2 1 1 2 2 2 2 2 2 2 1 0 0 0 0 0 1
27 31 37 43 42 38 36 35 35 34 31 28 25 23 22 21 18 15 13 12 11 9 6 5 4 3 2 1 1 1 1 2 2 1 1 2 1 0 0 0 0 0 0

GEFSSE_con_prob3kmehi_180.txt.gz
EHI
8 21 36 44 45 43 35 24 15 9 6 5 8 12 14 15 16 15 12 9 8 6 4 3 3 3 4 4 5 4 3 2 2 3 3 4 7 9 13 18 16 13 15
15 25 39 46 47 43 35 25 17 11 8 7 7 8 9 10 10 9 7 6 5 4 3 2 3 3 4 4 4 3 2 1 1 2 2 3 4 7 10 15 15 15 18
26 29 38 48 50 45 37 29 21 14 9 8 7 6 5 4 3 2 2 1 2 1 1 1 1 2 3 2 2 1 1 0 0 1 1 1 1 4 7 11 15 16 15
29 28 35 49 55 49 41 33 26 20 14 10 8 6 4 3 1 0 0 0 0 0 0 0 0 1 1 1 0 0 0 0 0 0 0 0 1 3 5 9 13 12 10
26 26 34 50 57 54 46 37 31 27 22 16 11 8 6 3 2 0 0 0 0 0 0 0 0 0 0 0 0 0 0 0 0 0 0 0 1 2 5 8 10 9 6
27 27 35 49 56 56 49 40 34 31 27 21 16 11 7 5 4 2 1 0 0 1 1 1 1 1 0 0 0 0 0 0 0 0 0 0 0 2 4 6 7 6 5
30 30 38 50 56 55 51 43 36 31 28 23 18 12 8 8 8 5 3 2 2 3 3 3 4 3 2 1 0 0 0 0 0 0 0 0 0 3 6 7 7 6 5
36 37 42 50 54 55 52 45 37 31 26 22 19 14 11 10 10 9 7 5 5 5 5 5 6 5 3 3 2 0 0 0 0 0 0 0 1 6 9 10 10 10 10
41 41 42 45 48 50 51 46 38 30 25 22 19 16 13 11 10 10 10 9 8 6 5 6 6 4 4 4 3 1 0 0 0 0 0 0 2 8 12 12 11 14 16
41 38 38 39 40 41 41 40 36 29 24 22 20 16 14 11 9 9 10 10 9 6 4 5 6 4 3 3 2 1 0 0 0 0 0 1 3 7 11 10 10 14 17
37 34 33 34 34 33 31 31 31 26 21 20 19 16 13 11 9 8 7 8 7 5 4 5 6 5 3 2 1 1 0 0 0 0 0 2 4 6 8 8 9 12 15
35 33 31 32 32 30 27 26 24 19 15 14 14 14 12 11 9 7 5 4 4 4 4 5 6 6 4 2 1 1 1 0 0 0 1 3 5 5 6 7 9 10 12
36 33 31 32 33 31 28 27 22 15 10 8 8 9 9 9 8 6 3 2 2 3 4 5 6 6 5 2 1 0 0 0 0 0 0 1 3 3 5 8 9 9 9
37 35 33 35 35 33 31 29 25 18 12 8 7 7 7 6 6 5 3 1 1 2 3 4 5 5 4 2 1 0 0 0 0 0 0 1 2 3 5 9 9 8 7
39 38 38 38 36 35 33 30 26 22 16 12 9 8 7 6 5 5 3 2 0 1 2 3 3 3 3 3 1 0 0 0 0 0 0 1 2 4 6 9 8 7 7
44 43 42 40 37 35 33 29 25 21 19 15 12 10 8 7 6 4 2 1 0 0 1 1 2 2 2 2 1 0 0 0 0 0 0 1 2 5 8 9 7 5 5
50 46 44 43 40 36 33 28 24 20 19 17 14 11 10 10 7 4 1 0 0 0 0 0 1 1 1 1 1 0 0 0 0 0 0 0 1 4 7 7 5 3 2
50 48 45 45 42 37 32 26 22 19 18 17 15 13 12 11 8 4 2 1 1 0 0 0 0 0 0 0 0 0 0 0 0 0 0 0 0 1 2 3 3 2 1
49 48 45 43 41 37 31 25 20 18 16 16 15 13 11 9 8 5 4 3 1 0 0 0 0 0 0 0 0 0 0 0 0 0 0 0 0 0 0 1 2 2 1
48 47 45 41 38 36 32 26 21 17 15 15 15 12 10 10 9 7 5 3 1 0 0 0 0 0 0 0 0 0 0 0 0 0 0 0 0 0 0 0 1 1 1
41 42 40 36 35 35 34 29 23 16 12 12 12 11 10 11 10 7 4 3 1 0 0 0 0 0 0 0 0 0 0 0 0 0 0 0 0 0 0 0 0 0 1
31 32 31 29 31 33 32 28 21 14 9 9 9 9 9 10 9 7 4 3 2 1 0 0 0 0 0 0 0 0 0 0 0 0 0 0 0 0 0 0 0 0 0
24 24 23 22 24 26 26 23 18 12 8 7 6 7 9 9 8 7 5 4 2 1 0 0 0 0 0 0 0 0 0 0 0 0 0 0 0 0 0 0 0 0 0
19 19 19 19 19 19 19 19 16 12 9 7 7 8 9 9 8 7 5 3 1 0 0 0 0 0 0 0 0 0 0 0 0 0 0 0 0 0 0 0 0 0 0
14 14 15 17 17 15 15 16 15 13 11 9 8 8 9 9 7 6 4 2 0 0 0 0 0 0 0 0 0 0 0 0 0 0 0 0 0 0 0 0 0 0 0
9 9 11 14 15 14 13 14 15 13 12 11 10 9 9 9 7 5 3 1 0 0 0 0 0 0 0 0 0 0 0 0 0 0 0 0 0 0 0 0 0 0 0

GEFSSE_con_prob3kmehi_186.txt.gz
EHI
0 7 18 24 26 35 44 49 49 47 46 47 50 52 52 48 41 35 30 25 22 18 10 4 2 1 0 0 0 0 0 0 0 0 0 0 0 0 1 1 1 0 0
4 10 22 27 29 36 46 51 51 48 47 47 48 50 50 45 38 34 31 26 22 18 12 7 5 3 1 0 0 0 0 0 0 0 0 0 0 0 1 3 2 0 0
12 16 25 31 33 38 46 52 53 50 48 47 47 47 45 39 34 31 29 25 21 17 14 10 7 5 3 2 0 0 0 0 0 0 0 0 0 0 2 4 2 0 0
20 21 26 36 40 41 46 52 53 51 48 46 45 44 40 34 30 27 24 21 18 15 13 10 9 8 6 4 2 1 0 0 0 0 0 0 0 0 2 3 2 1 1
24 21 28 42 48 47 49 52 52 51 50 46 43 40 35 29 24 22 20 17 15 14 13 11 10 9 8 6 4 2 1 0 0 0 0 0 0 0 1 2 2 2 3
22 20 29 46 54 54 54 54 53 53 51 46 40 35 31 26 22 20 17 13 12 13 13 12 10 10 9 7 4 3 2 1 0 0 0 0 0 0 1 1 2 2 3
23 22 31 48 57 59 59 57 55 54 52 47 40 34 29 26 24 20 16 11 10 11 12 11 10 9 9 6 3 2 2 2 1 0 0 0 0 0 1 1 1 2 3
27 26 31 44 53 57 60 60 56 54 52 48 41 34 29 27 26 23 17 12 10 9 8 8 8 8 6 4 2 1 1 1 1 0 0 0 0 0 0 1 2 2 3
27 27 30 37 42 46 52 55 55 52 49 45 39 33 28 26 25 24 20 15 12 9 6 5 5 5 4 2 1 0 0 1 1 0 0 0 0 0 0 1 1 2 3
25 25 28 30 31 32 37 44 46 45 42 39 35 30 26 23 22 22 20 17 15 11 7 5 5 5 4 3 1 1 1 1 1 0 0 0 0 0 1 2 1 2 2
26 25 25 27 26 25 27 32 34 35 34 33 30 27 23 19 17 17 16 15 15 13 10 8 7 7 6 5 2 1 2 3 2 0 0 1 1 1 2 3 1 0 0
28 25 23 24 25 25 25 25 27 28 28 27 25 23 20 16 13 13 12 12 12 13 13 10 8 7 8 6 3 1 2 3 2 1 1 1 2 2 2 2 2 1 0
29 26 23 23 25 26 25 25 25 26 26 24 22 21 19 15 12 10 9 9 9 11 11 10 9 8 8 7 3 1 1 1 2 1 1 1 1 1 2 3 3 2 1
31 29 26 26 27 26 26 25 25 26 25 23 21 21 20 17 13 9 6 6 5 5 7 7 8 8 8 5 3 2 0 0 1 1 0 0 0 1 2 3 3 3 3
30 29 28 28 27 25 23 22 23 24 23 21 20 21 20 18 13 8 5 3 2 2 2 3 3 4 4 3 2 1 0 0 0 0 0 0 0 1 2 2 2 3 3
24 25 25 25 24 22 21 20 20 22 22 21 20 20 19 16 12 8 5 2 1 0 0 0 1 1 1 1 1 1 0 0 0 0 0 0 0 1 1 2 4 4 3
20 20 20 20 20 19 19 19 18 20 20 19 19 19 18 14 10 5 3 2 1 0 0 0 0 0 0 0 0 0 0 0 0 0 0 0 0 1 1 2 4 4 3
20 19 18 17 16 15 16 17 18 17 17 15 15 15 14 11 6 2 1 1 1 0 0 0 0 0 0 0 0 0 0 0 0 0 0 0 0 0 1 1 1 1 1
20 20 19 18 14 11 12 14 14 13 11 10 10 10 8 7 4 1 0 0 0 0 0 0 0 0 0 0 0 0 0 0 0 0 0 0 0 0 0 0 0 0 0
19 19 18 17 14 11 11 11 11 9 6 4 5 5 4 2 1 0 0 0 0 1 1 0 0 0 1 0 0 0 0 0 0 0 0 0 0 0 0 0 0 0 0
17 16 15 15 15 14 14 12 10 8 4 2 1 2 1 1 1 1 1 1 1 1 1 1 0 0 0 0 0 0 0 0 0 0 0 0 0 0 0 0 0 0 0
14 14 14 14 15 16 15 13 11 8 5 2 0 1 2 2 2 2 2 2 2 1 1 1 1 0 0 0 0 0 0 0 0 0 0 0 0 0 0 0 0 0 0
9 11 12 13 14 14 13 11 10 8 4 1 0 1 2 3 3 3 3 2 1 0 0 0 0 0 0 0 0 0 0 0 0 0 0 0 0 0 0 0 0 0 0
4 7 9 10 10 10 10 9 9 8 5 1 0 1 2 2 2 3 3 2 0 0 0 0 0 0 0 0 0 0 0 0 0 0 0 0 0 0 0 0 0 0 0
1 4 6 7 7 7 7 7 9 9 5 2 1 0 1 1 1 2 3 2 1 0 0 0 0 0 0 0 0 0 0 0 0 0 0 0 0 0 0 0 0 0 0
1 3 6 6 6 6 5 6 8 8 6 3 1 0 0 0 0 1 2 3 2 1 0 0 0 0 0 0 0 0 0 0 0 0 0 0 0 0 0 0 0 0 0

GEFSSE_con_prob3kmehi_192.txt.gz
EHI
21 36 45 36 24 18 18 25 33 40 40 35 31 31 31 28 24 22 19 15 11 7 5 5 6 5 3 1 0 0 0 0 0 0 0 0 0 0 0 0 0 4 10
24 39 48 40 28 19 19 27 35 41 42 40 38 38 37 33 29 25 21 15 11 9 7 6 6 6 4 3 1 0 0 0 0 0 0 0 0 0 0 0 1 5 10
27 39 47 44 34 23 21 28 36 41 43 44 45 45 43 39 34 28 23 17 13 10 8 7 6 5 5 4 3 1 0 0 0 0 0 0 1 1 1 0 1 5 7
25 34 43 44 37 28 25 30 35 38 39 42 44 45 44 41 36 30 25 21 17 13 9 7 5 5 5 4 3 2 1 0 0 0 0 0 3 5 4 1 2 4 4
18 27 41 46 41 35 33 35 36 36 37 38 39 40 39 37 33 29 26 24 22 17 12 8 6 4 4 4 3 2 1 0 0 0 0 0 4 9 7 2 3 3 3
13 24 41 48 46 44 43 43 42 40 39 38 36 36 36 33 29 26 25 25 23 19 14 10 7 5 5 5 4 3 1 0 0 0 0 0 5 10 7 3 2 1 2
16 24 38 47 49 48 48 49 48 46 43 39 35 33 32 31 28 26 25 24 21 17 14 11 8 7 7 7 5 3 2 1 0 1 1 1 6 10 7 3 1 1 2
22 27 36 44 46 47 48 48 48 47 45 40 34 30 28 27 27 26 25 23 18 14 12 12 10 9 10 10 6 4 3 2 1 1 2 3 9 12 8 3 1 1 2
27 29 34 37 39 42 44 45 44 43 42 39 34 29 25 22 22 23 23 21 16 13 11 11 11 11 12 11 7 5 4 3 1 1 2 6 13 13 7 2 1 1 2
31 31 31 31 32 33 36 40 41 40 39 37 34 31 25 19 16 17 18 17 15 12 11 11 10 10 11 10 8 7 7 5 2 1 2 9 15 12 5 1 0 0 1
34 32 30 29 28 26 27 31 33 34 34 31 30 31 26 17 12 11 13 15 14 11 10 10 9 9 9 9 10 10 9 6 3 1 4 10 13 9 3 0 1 1 0
33 32 30 29 27 24 22 25 27 25 25 23 24 27 26 19 14 11 14 16 13 9 9 9 10 9 9 11 12 12 10 6 3 2 6 11 10 5 1 1 2 2 1
30 31 30 29 27 25 23 26 26 24 22 20 20 24 27 25 21 18 18 17 13 10 10 11 11 10 10 11 13 13 10 6 3 2 8 13 10 4 1 1 2 2 1
29 31 31 31 32 31 30 29 28 27 25 23 22 24 27 29 26 22 21 18 15 12 11 12 11 10 9 9 9 9 8 5 3 3 9 14 12 6 3 2 2 2 1
29 30 32 34 37 39 39 35 30 27 25 25 25 26 26 27 26 23 21 19 15 11 9 9 10 10 9 7 5 5 5 5 4 4 8 13 13 9 5 4 2 1 1
27 29 33 34 36 39 42 38 31 27 25 24 24 24 23 24 25 23 21 19 15 9 7 6 7 9 9 6 4 4 5 5 5 5 6 10 11 8 6 4 2 1 1
25 29 32 32 31 33 36 34 29 26 25 24 23 21 20 21 22 22 21 19 15 10 9 8 8 8 7 5 3 3 5 5 5 6 6 7 8 7 4 3 1 1 1
22 27 31 30 28 29 30 29 25 24 24 23 22 21 19 18 19 19 18 17 14 12 11 11 9 8 7 7 6 5 5 5 5 5 5 6 6 5 3 2 1 0 0
18 23 27 28 27 27 27 25 23 22 22 21 21 20 18 16 16 16 14 13 12 11 10 10 10 10 10 9 8 7 7 6 5 4 3 4 5 5 4 3 2 1 0
15 18 21 25 26 26 26 25 24 22 21 20 19 18 16 13 13 12 11 10 10 10 9 10 11 11 10 8 6 6 6 6 5 3 2 3 5 6 5 5 4 4 2
12 13 16 21 24 25 26 27 25 22 19 17 17 16 13 11 10 10 9 10 11 11 10 10 11 10 7 6 4 4 4 4 3 2 2 3 4 5 5 5 6 6 5
11 11 13 17 20 22 25 26 25 21 17 14 14 13 11 9 9 8 8 9 11 11 10 10 10 8 5 4 3 3 2 1 1 1 2 3 3 3 3 4 5 6 5
11 11 12 14 16 18 22 24 24 21 17 14 13 13 10 7 7 7 7 8 9 9 9 10 9 7 5 3 3 2 1 0 0 0 1 2 3 2 1 1 3 4 5
11 11 12 13 15 16 19 21 22 21 18 15 15 14 10 6 5 5 6 8 8 8 7 7 7 7 6 4 3 3 2 1 0 0 0 1 2 2 1 0 1 3 4
8 10 12 12 13 15 16 19 20 18 16 15 16 16 12 7 4 3 5 7 8 7 7 5 6 7 7 5 4 4 4 2 1 0 0 0 1 1 0 0 0 1 1
7 9 11 10 11 13 15 17 17 15 14 15 16 16 13 9 5 2 3 5 7 8 7 5 5 7 7 5 5 5 5 3 1 0 0 0 0 0 0 0 0 0 0

GEFSSE_con_prob3kmehi_198.txt.gz
EHI
55 54 58 51 36 25 14 6 3 2 2 2 3 3 3 3 3 3 3 4 4 4 4 4 2 1 0 0 0 0 0 0 0 0 0 1 2 4 8 11 11 11 14
56 55 55 50 38 27 17 8 4 3 2 2 3 3 2 2 2 2 2 3 2 3 3 3 2 1 0 0 0 0 0 0 0 0 0 0 1 2 6 10 12 14 16
57 52 50 47 39 29 19 10 6 4 2 2 3 3 1 1 1 1 1 1 1 2 4 3 2 2 1 1 0 0 0 1 1 1 0 0 1 4 7 11 14 16 18
54 49 49 50 42 30 19 12 8 6 5 4 4 4 3 2 2 1 0 0 1 3 4 4 3 3 3 2 1 1 0 1 2 2 1 0 3 10 15 15 15 16 18
50 50 55 56 48 35 22 14 11 8 7 7 6 7 6 6 4 3 3 3 3 4 4 3 3 3 3 3 3 2 1 1 2 2 1 1 8 18 24 22 19 18 19
47 53 58 58 53 40 27 19 15 12 11 11 12 12 10 9 8 7 6 6 6 5 4 3 3 3 3 4 4 3 3 2 2 1 1 2 12 26 31 27 22 19 20
47 52 55 57 55 45 33 24 20 18 17 17 18 17 14 13 13 12 10 10 9 6 4 3 3 4 6 7 7 5 4 3 2 1 1 5 17 33 36 29 22 19 20
46 50 52 53 53 47 38 28 23 22 21 22 22 20 17 16 16 16 14 12 11 9 6 4 4 5 9 11 11 8 4 3 3 1 1 6 20 35 38 30 21 18 19
43 46 48 48 46 42 36 29 25 23 23 23 22 20 16 15 16 16 15 13 13 12 9 6 5 6 9 12 12 9 7 5 3 1 1 7 21 36 39 31 22 18 18
39 42 42 42 39 35 31 28 26 26 26 24 21 18 15 13 12 12 13 15 16 15 13 9 6 6 8 11 12 10 9 8 4 1 2 11 26 37 36 29 23 19 19
38 38 37 38 36 31 28 28 28 27 27 25 22 20 17 13 10 9 14 22 23 20 17 11 7 7 9 10 12 12 12 12 7 2 6 19 33 37 32 26 23 21 20
39 38 36 35 34 30 29 31 29 26 26 25 24 22 17 14 11 10 17 27 28 22 18 14 10 9 9 9 11 13 15 14 10 5 10 26 38 35 29 25 24 23 22
39 37 36 36 36 33 34 35 31 27 26 26 25 23 20 17 14 12 18 25 26 22 18 14 12 10 8 9 11 13 13 12 11 8 14 30 38 33 26 24 24 25 24
38 36 36 41 44 43 43 42 35 29 27 26 27 28 27 23 18 17 19 23 24 21 18 14 12 12 9 9 10 10 9 8 9 8 14 27 35 28 21 20 23 26 27
39 36 37 44 51 52 52 49 40 33 30 29 31 33 32 28 23 21 23 26 25 22 19 15 13 13 11 9 9 9 7 6 7 7 10 19 24 22 18 18 22 25 27
37 37 38 41 47 50 52 50 42 36 34 33 35 37 33 27 25 24 26 29 28 24 23 20 16 14 13 11 8 8 7 7 7 5 6 9 13 16 17 19 20 22 23
33 36 38 38 39 41 43 44 40 37 36 36 38 39 33 25 24 27 28 30 29 26 26 25 20 18 16 13 10 8 7 7 6 3 3 4 7 10 14 16 17 19 21
31 35 37 35 33 34 38 39 37 37 38 37 38 36 30 24 23 26 28 29 29 27 25 24 23 23 20 16 12 9 8 7 4 1 1 2 3 5 8 11 13 16 18
28 31 35 33 30 30 34 36 34 35 37 38 38 35 30 24 22 23 25 25 26 25 23 22 22 23 21 15 11 8 7 5 2 1 1 2 2 3 6 8 9 11 12
23 27 30 30 29 29 32 33 31 31 33 35 37 34 30 25 22 21 22 22 24 24 22 19 20 21 18 13 8 5 4 2 1 0 2 3 3 4 5 5 6 6 6
19 21 24 26 28 29 30 29 28 27 29 31 32 30 27 25 23 21 21 22 23 23 20 19 19 17 14 11 7 3 1 1 0 0 1 2 3 4 4 4 4 4 4
16 17 19 23 27 29 28 27 25 25 26 26 25 25 24 23 22 20 19 20 21 21 19 19 18 14 11 9 6 3 0 0 0 1 1 1 2 4 4 3 3 4 5
12 14 17 22 25 26 24 22 20 20 21 21 21 22 22 21 21 19 17 17 19 20 21 20 17 13 9 7 5 3 1 1 0 1 2 1 1 3 3 3 3 4 5
9 12 17 20 22 21 19 17 16 14 15 17 20 21 20 19 19 17 14 13 15 19 21 20 17 13 9 5 4 3 2 2 1 1 1 2 2 3 3 2 3 3 4
8 11 14 17 19 19 17 16 16 14 13 15 18 19 19 19 17 15 12 11 12 16 19 19 18 14 10 5 3 3 3 2 1 1 1 2 2 3 3 3 3 3 3
8 9 12 15 19 19 17 17 17 16 14 14 16 17 18 18 16 12 11 11 11 14 18 19 18 15 10 6 3 3 2 2 2 1 0 1 2 3 3 3 3 3 3

GEFSSE_con_prob3kmehi_204.txt.gz
EHI
6 16 30 35 34 34 30 25 22 20 20 20 20 21 20 18 17 15 13 10 6 3 2 2 2 3 3 3 2 2 3 3 3 1 2 4 8 13 16 16 13 13 17
9 17 33 41 38 35 30 25 23 22 21 19 19 19 19 17 15 13 10 7 4 2 1 1 1 1 1 1 1 1 1 2 2 1 1 2 5 10 14 15 14 15 18
13 18 33 43 42 37 31 27 26 25 23 21 19 19 17 16 14 12 9 6 3 2 1 0 0 1 1 1 0 0 0 0 0 0 0 0 2 5 10 13 15 18 20
18 21 31 43 44 38 34 31 29 27 25 23 21 20 17 14 13 11 9 7 4 2 1 0 0 1 2 1 0 0 0 0 0 0 0 0 0 2 7 11 15 17 17
21 23 32 44 47 42 38 35 31 28 26 24 21 19 16 15 14 13 9 5 3 1 0 0 0 1 1 1 0 0 0 0 0 0 0 0 0 1 5 11 15 16 15
21 22 31 44 49 47 43 39 33 29 26 25 23 19 17 18 18 16 9 4 2 1 1 0 1 1 1 1 1 1 1 0 0 0 0 0 1 2 6 11 17 18 17
23 22 30 43 49 48 45 40 35 30 28 26 23 20 18 19 19 15 10 5 3 2 2 1 1 2 3 3 3 2 2 1 0 1 1 0 1 3 6 11 18 21 20
25 23 30 40 44 44 42 38 35 33 30 26 22 20 18 17 16 14 12 9 7 5 4 4 3 3 5 6 5 4 3 1 0 1 1 0 1 3 7 13 20 23 22
23 24 28 33 35 37 37 34 33 33 30 26 22 19 17 15 15 15 14 13 10 8 7 7 6 5 6 7 5 4 3 1 1 1 0 0 1 4 10 17 23 25 23
21 22 25 28 30 30 29 28 28 30 30 25 22 21 18 14 13 14 14 13 11 8 8 9 9 8 8 7 5 4 3 2 2 2 1 0 1 5 11 19 25 27 26
19 19 21 25 27 27 25 24 26 28 27 22 18 19 16 11 10 9 10 10 9 7 8 9 10 10 9 6 4 4 3 5 5 4 2 2 2 4 9 17 23 26 27
14 13 15 19 23 25 25 25 26 26 24 18 14 13 12 9 7 6 7 7 7 6 7 8 9 9 8 7 6 5 6 7 8 6 4 3 4 5 10 16 21 22 22
11 10 10 13 17 20 22 25 26 24 20 16 12 11 12 10 9 7 6 6 6 6 5 5 6 7 6 5 6 7 7 9 9 7 3 4 7 10 14 19 21 19 18
15 12 10 11 12 14 18 22 22 20 18 15 13 13 13 11 10 8 7 6 5 5 4 4 4 5 4 3 3 5 7 9 8 5 2 4 9 13 17 19 19 17 17
17 15 13 12 11 11 15 17 16 15 15 14 14 13 11 9 8 7 5 4 4 4 5 5 4 3 3 1 1 2 3 5 4 2 1 4 9 13 16 17 14 13 15
15 15 15 13 11 10 13 14 12 10 10 10 11 10 8 7 6 5 4 4 4 5 5 4 3 3 2 1 0 0 1 1 2 1 1 3 6 10 13 13 12 11 12
14 14 14 12 10 10 12 13 11 8 6 6 6 7 5 5 6 6 5 4 5 6 6 5 3 2 1 1 1 0 0 0 1 1 0 1 3 6 9 10 11 12 12
15 14 12 10 9 10 12 13 11 8 6 5 4 4 3 5 7 7 5 4 4 6 7 7 4 2 0 0 1 0 0 0 0 0 0 0 1 2 4 7 10 11 11
14 13 11 9 9 10 13 14 13 10 8 6 5 5 5 6 8 7 4 3 4 6 7 6 4 2 0 0 0 0 0 0 0 0 0 0 0 1 2 4 6 7 7
12 11 10 9 9 10 12 14 14 12 9 7 6 8 8 8 7 6 4 3 4 5 5 3 2 1 1 0 0 0 0 0 0 0 0 0 0 0 1 2 3 3 2
9 9 8 8 8 8 10 12 13 13 10 7 7 8 9 9 7 4 3 3 4 5 3 2 1 0 1 0 0 0 0 0 0 0 0 0 0 0 0 0 0 0 0
7 7 6 4 5 5 7 10 12 12 9 6 6 5 5 6 6 3 1 1 3 3 2 2 1 0 0 0 0 0 0 0 0 0 0 0 0 0 0 0 0 0 0
4 4 3 2 2 4 7 9 10 8 7 5 4 3 2 3 3 2 1 1 2 2 2 1 0 0 0 0 0 0 0 0 0 0 0 0 0 0 0 0 0 0 0
3 2 1 0 1 3 6 8 8 6 4 4 3 3 2 2 2 2 2 3 4 4 3 2 1 0 0 0 0 0 0 0 0 0 0 0 0 0 0 0 0 0 0
2 1 0 0 1 2 4 5 5 3 3 3 3 2 3 4 3 3 4 5 6 6 4 3 2 1 1 0 0 0 0 0 0 0 0 0 0 0 0 0 0 0 0
1 0 1 1 1 1 1 2 2 1 2 3 3 3 3 5 5 5 5 5 6 6 5 3 2 2 1 1 0 0 0 0 0 0 0 0 0 0 0 0 0 0 0

GEFSSE_con_prob3kmehi_210.txt.gz
EHI
5 13 25 32 32 33 36 44 51 53 51 47 46 45 42 40 35 28 22 16 10 5 3 1 1 1 2 2 2 1 0 0 0 0 0 0 0 0 0 1 0 0 0
9 16 28 33 33 35 38 43 49 52 50 48 47 45 42 38 32 26 23 19 12 8 5 2 1 2 2 1 1 0 0 0 0 0 0 0 0 0 1 1 1 0 0
15 20 27 31 33 37 40 42 47 50 52 52 50 47 41 35 29 23 21 18 13 10 7 3 1 2 2 1 0 0 0 0 0 0 0 0 0 0 1 2 2 1 1
19 19 22 27 31 36 40 42 44 48 53 55 52 47 39 32 27 22 19 16 12 9 6 2 0 1 2 1 0 0 0 0 0 0 0 0 0 0 1 2 3 3 3
21 19 21 27 32 36 38 40 41 45 49 50 48 43 37 31 26 21 17 14 11 7 4 2 1 2 1 1 1 1 1 1 1 0 0 0 0 0 1 1 2 4 6
21 19 22 30 36 37 37 37 38 41 42 41 40 39 35 29 24 18 14 11 9 7 6 4 3 3 2 1 2 3 3 2 1 0 0 0 0 0 1 2 2 4 7
20 18 21 28 34 34 33 34 36 37 36 33 33 34 32 27 21 16 13 10 8 7 7 6 4 3 3 2 2 3 3 2 1 0 0 0 0 0 2 4 4 5 8
21 19 18 21 25 26 28 31 32 32 33 30 27 27 25 22 17 14 13 10 7 6 6 5 4 4 4 3 2 3 3 1 0 0 0 0 0 0 2 4 5 6 8
22 20 17 16 17 20 24 27 27 27 28 26 22 19 17 14 13 12 11 8 6 6 5 5 6 7 7 5 3 3 2 1 0 0 0 0 0 0 1 2 3 5 6
21 19 16 15 15 17 18 20 22 23 23 22 17 14 12 11 10 9 8 6 4 4 5 5 6 7 8 7 4 3 2 2 2 1 0 0 0 0 0 1 3 3 3
17 17 15 15 15 15 14 15 18 20 21 20 16 12 11 11 10 8 7 5 4 2 2 2 3 4 5 5 4 3 3 3 4 3 1 1 2 3 3 3 4 3 2
14 15 15 16 16 15 15 15 17 18 19 17 15 13 12 11 10 8 7 5 4 3 2 1 2 3 4 5 5 5 4 5 5 4 3 3 4 7 8 6 5 4 3
13 14 15 16 15 14 15 15 15 17 16 15 13 13 12 12 10 9 7 5 5 4 3 3 3 4 5 6 7 7 6 5 4 3 4 5 6 8 10 9 7 6 5
13 13 13 13 12 11 12 11 12 14 15 14 12 11 10 11 11 9 7 6 5 4 4 4 5 5 5 5 6 6 5 4 3 2 3 5 6 7 8 7 6 6 7
11 10 10 9 8 9 9 8 8 10 12 12 10 8 7 8 9 9 8 6 4 3 4 4 4 4 3 3 4 4 3 3 2 1 2 4 5 5 5 5 5 6 8
8 7 7 7 6 7 7 7 6 7 8 9 8 7 6 6 6 7 7 5 3 3 3 3 3 2 2 2 2 3 3 2 2 1 1 2 3 3 4 6 7 8 9
6 6 6 6 6 5 5 5 5 4 4 5 6 7 6 4 5 6 6 4 2 2 2 2 1 1 1 2 3 3 2 1 1 1 1 1 1 1 3 7 9 10 11
7 7 6 6 5 3 3 3 4 3 3 4 4 4 4 4 4 5 5 3 2 1 1 1 1 1 0 1 3 3 2 1 0 0 0 0 0 0 2 4 6 8 8
7 6 5 5 4 2 1 1 2 3 3 3 3 3 3 3 3 4 3 2 1 1 1 2 2 2 1 1 2 2 2 1 0 0 0 0 0 0 1 2 3 3 3
6 4 4 4 3 1 0 0 1 1 2 2 3 3 3 3 3 2 1 1 2 2 1 1 2 2 1 0 1 1 1 0 0 0 0 0 0 0 1 2 2 1 1
3 2 2 2 1 1 1 1 0 0 1 1 1 3 3 3 2 1 1 1 1 1 1 0 1 1 0 0 0 0 0 0 0 0 0 0 0 0 0 1 1 0 0
1 1 1 1 0 1 1 1 0 0 0 0 1 2 3 3 2 1 1 1 1 0 0 0 0 0 0 0 0 0 0 0 0 0 0 0 0 0 0 0 0 0 0
1 1 1 0 0 0 1 1 0 0 0 0 0 1 2 2 1 0 0 1 1 1 0 0 0 0 0 0 0 0 0 0 0 0 0 0 0 0 0 0 0 0 0
1 1 1 0 0 0 0 0 0 0 0 0 0 0 1 1 1 0 0 0 1 1 0 0 0 0 0 0 0 0 0 0 0 0 0 0 0 0 0 0 0 0 0
1 0 0 0 0 0 0 0 0 0 0 0 0 0 0 0 0 0 0 0 0 0 0 0 0 0 0 0 0 0 0 0 0 0 0 0 0 0 0 0 0 0 0
1 1 0 0 0 0 0 0 0 0 0 0 0 0 0 0 0 0 0 0 0 0 0 0 0 1 1 1 0 0 0 0 0 0 0 0 0 0 0 0 0 0 0